Wetterdaten: Donnerstag, 01.06.2023
Datum Zeit Temp. 2m Temp +5 cm Feuchte A. Luftdruck Regen Wind Richtung Richtung Sonnenschein UV Solar Taupunkt Windchill Windben
01.06.2023 00:00 13,9 C 10,0 C 75 % 1021,9 hPa 0,0 l/m 3,9 km/h (1 Bft) N-NO 24 0 min 0,0 UV-I 0 W/m 9,5 C 13,9 C 6,4 km/h (2 Bft)
01.06.2023 00:03 13,9 C 10,0 C 75 % 1021,9 hPa 0,0 l/m 3,7 km/h (1 Bft) N-NO 23 0 min 0,0 UV-I 0 W/m 9,5 C 13,9 C 4,8 km/h (1 Bft)
01.06.2023 00:06 13,8 C 9,4 C 75 % 1022,0 hPa 0,0 l/m 2,9 km/h (1 Bft) N-NO 23 0 min 0,0 UV-I 0 W/m 9,4 C 13,8 C 4,8 km/h (1 Bft)
01.06.2023 00:09 13,8 C 9,4 C 75 % 1022,0 hPa 0,0 l/m 2,9 km/h (1 Bft) N-NO 23 0 min 0,0 UV-I 0 W/m 9,4 C 13,8 C 4,8 km/h (1 Bft)
01.06.2023 00:12 13,5 C 9,4 C 75 % 1021,9 hPa 0,0 l/m 1,3 km/h (1 Bft) N-NO 23 0 min 0,0 UV-I 0 W/m 9,2 C 13,5 C 3,2 km/h (1 Bft)
01.06.2023 00:15 13,3 C 8,9 C 76 % 1021,9 hPa 0,0 l/m 0,2 km/h (0 Bft) N-NO 23 0 min 0,0 UV-I 0 W/m 9,2 C 13,3 C 1,6 km/h (1 Bft)
01.06.2023 00:18 13,2 C 8,9 C 76 % 1021,9 hPa 0,0 l/m 0,0 km/h (0 Bft) N-NO 23 0 min 0,0 UV-I 0 W/m 9,1 C 13,2 C 0,0 km/h (0 Bft)
01.06.2023 00:21 13,1 C 9,4 C 77 % 1022,0 hPa 0,0 l/m 0,0 km/h (0 Bft) N-NO 23 0 min 0,0 UV-I 0 W/m 9,2 C 13,1 C 0,0 km/h (0 Bft)
01.06.2023 00:24 13,2 C 9,4 C 77 % 1022,0 hPa 0,0 l/m 0,0 km/h (0 Bft) N-NO 23 0 min 0,0 UV-I 0 W/m 9,3 C 13,2 C 0,0 km/h (0 Bft)
01.06.2023 00:27 13,3 C 9,4 C 76 % 1022,0 hPa 0,0 l/m 0,0 km/h (0 Bft) N-NO 23 0 min 0,0 UV-I 0 W/m 9,2 C 13,3 C 0,0 km/h (0 Bft)
01.06.2023 00:30 13,5 C 9,4 C 76 % 1022,0 hPa 0,0 l/m 0,1 km/h (0 Bft) N-NO 23 0 min 0,0 UV-I 0 W/m 9,4 C 13,5 C 1,6 km/h (1 Bft)
01.06.2023 00:33 13,5 C 9,4 C 76 % 1022,0 hPa 0,0 l/m 0,0 km/h (0 Bft) N-NO 23 0 min 0,0 UV-I 0 W/m 9,4 C 13,5 C 1,6 km/h (1 Bft)
01.06.2023 00:37 13,3 C 8,9 C 76 % 1022,0 hPa 0,0 l/m 0,3 km/h (0 Bft) N-NO 23 0 min 0,0 UV-I 0 W/m 9,2 C 13,3 C 1,6 km/h (1 Bft)
01.06.2023 00:39 13,3 C 9,4 C 76 % 1022,1 hPa 0,0 l/m 0,0 km/h (0 Bft) N-NO 23 0 min 0,0 UV-I 0 W/m 9,2 C 13,3 C 0,0 km/h (0 Bft)
01.06.2023 00:42 13,3 C 8,9 C 76 % 1022,0 hPa 0,0 l/m 2,0 km/h (1 Bft) N-NO 23 0 min 0,0 UV-I 0 W/m 9,2 C 13,3 C 4,8 km/h (1 Bft)
01.06.2023 00:45 13,2 C 8,9 C 76 % 1022,0 hPa 0,0 l/m 2,3 km/h (1 Bft) N-NO 22 0 min 0,0 UV-I 0 W/m 9,1 C 13,2 C 6,4 km/h (2 Bft)
01.06.2023 00:48 13,1 C 8,9 C 75 % 1022,0 hPa 0,0 l/m 3,0 km/h (1 Bft) N-NO 23 0 min 0,0 UV-I 0 W/m 8,8 C 13,1 C 6,4 km/h (2 Bft)
01.06.2023 00:51 12,3 C 8,9 C 76 % 1021,9 hPa 0,0 l/m 2,9 km/h (1 Bft) N-NO 22 0 min 0,0 UV-I 0 W/m 8,2 C 12,3 C 4,8 km/h (1 Bft)
01.06.2023 00:54 11,9 C 8,9 C 78 % 1021,9 hPa 0,0 l/m 1,7 km/h (1 Bft) N-NO 23 0 min 0,0 UV-I 0 W/m 8,2 C 11,9 C 3,2 km/h (1 Bft)
01.06.2023 00:57 11,6 C 8,9 C 79 % 1021,9 hPa 0,0 l/m 1,3 km/h (1 Bft) N-NO 23 0 min 0,0 UV-I 0 W/m 8,1 C 11,6 C 3,2 km/h (1 Bft)
01.06.2023 01:00 11,4 C 8,3 C 80 % 1022,0 hPa 0,0 l/m 0,1 km/h (0 Bft) N-NO 22 0 min 0,0 UV-I 0 W/m 8,1 C 11,4 C 1,6 km/h (1 Bft)
01.06.2023 01:03 11,3 C 8,3 C 80 % 1022,0 hPa 0,0 l/m 0,2 km/h (0 Bft) N-NO 23 0 min 0,0 UV-I 0 W/m 8,0 C 11,3 C 1,6 km/h (1 Bft)
01.06.2023 01:06 11,4 C 8,3 C 81 % 1022,0 hPa 0,0 l/m 0,0 km/h (0 Bft) N-NO 22 0 min 0,0 UV-I 0 W/m 8,3 C 11,4 C 0,0 km/h (0 Bft)
01.06.2023 01:09 11,4 C 8,3 C 81 % 1022,0 hPa 0,0 l/m 0,0 km/h (0 Bft) N-NO 23 0 min 0,0 UV-I 0 W/m 8,3 C 11,4 C 0,0 km/h (0 Bft)
01.06.2023 01:12 11,3 C 7,8 C 81 % 1022,0 hPa 0,0 l/m 0,0 km/h (0 Bft) N-NO 23 0 min 0,0 UV-I 0 W/m 8,2 C 11,3 C 0,0 km/h (0 Bft)
01.06.2023 01:15 11,2 C 7,8 C 81 % 1022,0 hPa 0,0 l/m 0,0 km/h (0 Bft) N-NO 23 0 min 0,0 UV-I 0 W/m 8,1 C 11,2 C 0,0 km/h (0 Bft)
01.06.2023 01:18 11,1 C 7,8 C 81 % 1022,1 hPa 0,0 l/m 0,0 km/h (0 Bft) N-NO 23 0 min 0,0 UV-I 0 W/m 8,0 C 11,1 C 0,0 km/h (0 Bft)
01.06.2023 01:21 11,1 C 7,8 C 82 % 1022,1 hPa 0,0 l/m 0,0 km/h (0 Bft) N-NO 22 0 min 0,0 UV-I 0 W/m 8,1 C 11,1 C 0,0 km/h (0 Bft)
01.06.2023 01:24 11,2 C 7,8 C 82 % 1022,1 hPa 0,0 l/m 0,0 km/h (0 Bft) N-NO 22 0 min 0,0 UV-I 0 W/m 8,2 C 11,2 C 0,0 km/h (0 Bft)
01.06.2023 01:27 10,9 C 7,8 C 82 % 1022,0 hPa 0,0 l/m 0,0 km/h (0 Bft) N-NO 22 0 min 0,0 UV-I 0 W/m 7,9 C 10,9 C 0,0 km/h (0 Bft)
01.06.2023 01:30 10,8 C 7,8 C 83 % 1022,0 hPa 0,0 l/m 0,0 km/h (0 Bft) N-NO 23 0 min 0,0 UV-I 0 W/m 8,0 C 10,8 C 0,0 km/h (0 Bft)
01.06.2023 01:33 10,9 C 7,8 C 83 % 1022,0 hPa 0,0 l/m 0,0 km/h (0 Bft) N-NO 22 0 min 0,0 UV-I 0 W/m 8,1 C 10,9 C 0,0 km/h (0 Bft)
01.06.2023 01:36 10,8 C 7,8 C 82 % 1022,0 hPa 0,0 l/m 0,0 km/h (0 Bft) N-NO 23 0 min 0,0 UV-I 0 W/m 7,9 C 10,8 C 0,0 km/h (0 Bft)
01.06.2023 01:39 10,6 C 7,2 C 83 % 1022,1 hPa 0,0 l/m 0,0 km/h (0 Bft) N-NO 22 0 min 0,0 UV-I 0 W/m 7,8 C 10,6 C 0,0 km/h (0 Bft)
01.06.2023 01:42 10,4 C 7,2 C 83 % 1022,0 hPa 0,0 l/m 0,1 km/h (0 Bft) N-NO 22 0 min 0,0 UV-I 0 W/m 7,6 C 10,4 C 1,6 km/h (1 Bft)
01.06.2023 01:45 10,1 C 7,2 C 84 % 1022,0 hPa 0,0 l/m 0,0 km/h (0 Bft) N-NO 22 0 min 0,0 UV-I 0 W/m 7,5 C 10,1 C 0,0 km/h (0 Bft)
01.06.2023 01:48 10,2 C 7,2 C 85 % 1022,0 hPa 0,0 l/m 0,0 km/h (0 Bft) N-NO 22 0 min 0,0 UV-I 0 W/m 7,8 C 10,2 C 0,0 km/h (0 Bft)
01.06.2023 01:51 10,2 C 6,7 C 84 % 1022,1 hPa 0,0 l/m 0,0 km/h (0 Bft) N-NO 22 0 min 0,0 UV-I 0 W/m 7,6 C 10,2 C 0,0 km/h (0 Bft)
01.06.2023 01:54 9,9 C 7,2 C 84 % 1022,0 hPa 0,0 l/m 0,0 km/h (0 Bft) N-NO 22 0 min 0,0 UV-I 0 W/m 7,3 C 9,9 C 0,0 km/h (0 Bft)
01.06.2023 01:57 9,8 C 6,7 C 84 % 1022,1 hPa 0,0 l/m 0,0 km/h (0 Bft) N-NO 23 0 min 0,0 UV-I 0 W/m 7,2 C 9,8 C 0,0 km/h (0 Bft)
01.06.2023 02:00 9,8 C 6,7 C 85 % 1022,1 hPa 0,0 l/m 0,0 km/h (0 Bft) N-NO 22 0 min 0,0 UV-I 0 W/m 7,4 C 9,8 C 0,0 km/h (0 Bft)
01.06.2023 02:03 9,9 C 6,7 C 85 % 1022,0 hPa 0,0 l/m 0,0 km/h (0 Bft) N-NO 23 0 min 0,0 UV-I 0 W/m 7,5 C 9,9 C 1,6 km/h (1 Bft)
01.06.2023 02:06 10,1 C 6,7 C 85 % 1022,0 hPa 0,0 l/m 0,0 km/h (0 Bft) N-NO 23 0 min 0,0 UV-I 0 W/m 7,7 C 10,1 C 0,0 km/h (0 Bft)
01.06.2023 02:09 10,2 C 6,7 C 85 % 1022,0 hPa 0,0 l/m 0,0 km/h (0 Bft) N-NO 22 0 min 0,0 UV-I 0 W/m 7,8 C 10,2 C 0,0 km/h (0 Bft)
01.06.2023 02:12 9,9 C 6,7 C 85 % 1021,9 hPa 0,0 l/m 0,0 km/h (0 Bft) N-NO 22 0 min 0,0 UV-I 0 W/m 7,5 C 9,9 C 0,0 km/h (0 Bft)
01.06.2023 02:15 9,7 C 6,7 C 85 % 1021,9 hPa 0,0 l/m 0,0 km/h (0 Bft) N-NO 22 0 min 0,0 UV-I 0 W/m 7,3 C 9,7 C 0,0 km/h (0 Bft)
01.06.2023 02:18 9,6 C 6,7 C 85 % 1021,9 hPa 0,0 l/m 0,0 km/h (0 Bft) N-NO 22 0 min 0,0 UV-I 0 W/m 7,2 C 9,6 C 0,0 km/h (0 Bft)
01.06.2023 02:21 9,7 C 6,7 C 85 % 1021,9 hPa 0,0 l/m 0,0 km/h (0 Bft) N-NO 22 0 min 0,0 UV-I 0 W/m 7,3 C 9,7 C 0,0 km/h (0 Bft)
01.06.2023 02:24 9,6 C 6,7 C 85 % 1021,8 hPa 0,0 l/m 0,0 km/h (0 Bft) N-NO 22 0 min 0,0 UV-I 0 W/m 7,2 C 9,6 C 0,0 km/h (0 Bft)
01.06.2023 02:27 9,4 C 6,7 C 86 % 1021,9 hPa 0,0 l/m 0,0 km/h (0 Bft) N-NO 23 0 min 0,0 UV-I 0 W/m 7,2 C 9,4 C 0,0 km/h (0 Bft)
01.06.2023 02:30 9,3 C 6,7 C 86 % 1021,8 hPa 0,0 l/m 0,0 km/h (0 Bft) N-NO 22 0 min 0,0 UV-I 0 W/m 7,1 C 9,3 C 0,0 km/h (0 Bft)
01.06.2023 02:33 9,2 C 6,7 C 86 % 1021,8 hPa 0,0 l/m 0,0 km/h (0 Bft) N-NO 22 0 min 0,0 UV-I 0 W/m 7,0 C 9,2 C 0,0 km/h (0 Bft)
01.06.2023 02:36 9,2 C 6,7 C 87 % 1021,8 hPa 0,0 l/m 0,0 km/h (0 Bft) N-NO 22 0 min 0,0 UV-I 0 W/m 7,2 C 9,2 C 0,0 km/h (0 Bft)
01.06.2023 02:39 9,1 C 6,7 C 87 % 1021,9 hPa 0,0 l/m 0,0 km/h (0 Bft) N-NO 22 0 min 0,0 UV-I 0 W/m 7,1 C 9,1 C 0,0 km/h (0 Bft)
01.06.2023 02:42 8,9 C 6,1 C 87 % 1021,8 hPa 0,0 l/m 0,0 km/h (0 Bft) N-NO 22 0 min 0,0 UV-I 0 W/m 6,9 C 8,9 C 0,0 km/h (0 Bft)
01.06.2023 02:45 8,9 C 6,1 C 87 % 1021,8 hPa 0,0 l/m 0,0 km/h (0 Bft) N-NO 23 0 min 0,0 UV-I 0 W/m 6,9 C 8,9 C 0,0 km/h (0 Bft)
01.06.2023 02:48 8,9 C 6,1 C 88 % 1021,8 hPa 0,0 l/m 0,0 km/h (0 Bft) N-NO 22 0 min 0,0 UV-I 0 W/m 7,0 C 8,9 C 0,0 km/h (0 Bft)
01.06.2023 02:51 8,9 C 6,1 C 88 % 1021,7 hPa 0,0 l/m 0,0 km/h (0 Bft) N-NO 23 0 min 0,0 UV-I 0 W/m 7,0 C 8,9 C 0,0 km/h (0 Bft)
01.06.2023 02:54 8,8 C 6,1 C 88 % 1021,7 hPa 0,0 l/m 0,0 km/h (0 Bft) N-NO 23 0 min 0,0 UV-I 0 W/m 6,9 C 8,8 C 0,0 km/h (0 Bft)
01.06.2023 02:57 8,7 C 6,1 C 88 % 1021,7 hPa 0,0 l/m 0,0 km/h (0 Bft) N-NO 22 0 min 0,0 UV-I 0 W/m 6,8 C 8,7 C 0,0 km/h (0 Bft)
01.06.2023 03:00 8,7 C 6,1 C 88 % 1021,7 hPa 0,0 l/m 0,0 km/h (0 Bft) N-NO 23 0 min 0,0 UV-I 0 W/m 6,8 C 8,7 C 0,0 km/h (0 Bft)
01.06.2023 03:03 8,7 C 6,1 C 88 % 1021,7 hPa 0,0 l/m 0,0 km/h (0 Bft) N-NO 22 0 min 0,0 UV-I 0 W/m 6,8 C 8,7 C 0,0 km/h (0 Bft)
01.06.2023 03:06 8,8 C 6,1 C 89 % 1021,7 hPa 0,0 l/m 0,5 km/h (0 Bft) N-NO 22 0 min 0,0 UV-I 0 W/m 7,1 C 8,8 C 3,2 km/h (1 Bft)
01.06.2023 03:09 8,8 C 6,1 C 89 % 1021,7 hPa 0,0 l/m 2,2 km/h (1 Bft) N-NO 22 0 min 0,0 UV-I 0 W/m 7,1 C 8,8 C 3,2 km/h (1 Bft)
01.06.2023 03:12 8,8 C 6,7 C 89 % 1021,7 hPa 0,0 l/m 1,5 km/h (1 Bft) N-NO 22 0 min 0,0 UV-I 0 W/m 7,1 C 8,8 C 3,2 km/h (1 Bft)
01.06.2023 03:15 8,7 C 6,1 C 88 % 1021,7 hPa 0,0 l/m 0,0 km/h (0 Bft) N-NO 23 0 min 0,0 UV-I 0 W/m 6,8 C 8,7 C 0,0 km/h (0 Bft)
01.06.2023 03:18 8,4 C 6,1 C 88 % 1021,7 hPa 0,0 l/m 0,0 km/h (0 Bft) N-NO 22 0 min 0,0 UV-I 0 W/m 6,5 C 8,4 C 0,0 km/h (0 Bft)
01.06.2023 03:21 8,2 C 6,1 C 88 % 1021,7 hPa 0,0 l/m 0,0 km/h (0 Bft) N-NO 23 0 min 0,0 UV-I 0 W/m 6,3 C 8,2 C 0,0 km/h (0 Bft)
01.06.2023 03:24 8,2 C 6,1 C 88 % 1021,8 hPa 0,0 l/m 0,0 km/h (0 Bft) N-NO 22 0 min 0,0 UV-I 0 W/m 6,3 C 8,2 C 0,0 km/h (0 Bft)
01.06.2023 03:27 8,0 C 6,1 C 88 % 1021,7 hPa 0,0 l/m 0,0 km/h (0 Bft) N-NO 22 0 min 0,0 UV-I 0 W/m 6,1 C 8,0 C 0,0 km/h (0 Bft)
01.06.2023 03:30 8,1 C 6,1 C 89 % 1021,6 hPa 0,0 l/m 0,0 km/h (0 Bft) N-NO 22 0 min 0,0 UV-I 0 W/m 6,4 C 8,1 C 0,0 km/h (0 Bft)
01.06.2023 03:33 8,1 C 5,6 C 89 % 1021,6 hPa 0,0 l/m 0,0 km/h (0 Bft) N-NO 23 0 min 0,0 UV-I 0 W/m 6,4 C 8,1 C 0,0 km/h (0 Bft)
01.06.2023 03:36 8,0 C 5,6 C 89 % 1021,7 hPa 0,0 l/m 0,0 km/h (0 Bft) N-NO 22 0 min 0,0 UV-I 0 W/m 6,3 C 8,0 C 0,0 km/h (0 Bft)
01.06.2023 03:39 8,3 C 5,6 C 89 % 1021,7 hPa 0,0 l/m 0,0 km/h (0 Bft) N-NO 22 0 min 0,0 UV-I 0 W/m 6,6 C 8,3 C 0,0 km/h (0 Bft)
01.06.2023 03:42 8,3 C 5,6 C 89 % 1021,7 hPa 0,0 l/m 0,0 km/h (0 Bft) N-NO 22 0 min 0,0 UV-I 0 W/m 6,6 C 8,3 C 0,0 km/h (0 Bft)
01.06.2023 03:45 8,2 C 5,6 C 89 % 1021,6 hPa 0,0 l/m 0,0 km/h (0 Bft) N-NO 22 0 min 0,0 UV-I 0 W/m 6,5 C 8,2 C 0,0 km/h (0 Bft)
01.06.2023 03:48 8,2 C 5,6 C 89 % 1021,7 hPa 0,0 l/m 0,0 km/h (0 Bft) N-NO 22 0 min 0,0 UV-I 0 W/m 6,5 C 8,2 C 0,0 km/h (0 Bft)
01.06.2023 03:51 7,9 C 5,6 C 89 % 1021,6 hPa 0,0 l/m 0,0 km/h (0 Bft) N-NO 23 0 min 0,0 UV-I 0 W/m 6,2 C 7,9 C 0,0 km/h (0 Bft)
01.06.2023 03:54 7,8 C 5,6 C 89 % 1021,7 hPa 0,0 l/m 0,0 km/h (0 Bft) N-NO 22 0 min 0,0 UV-I 0 W/m 6,1 C 7,8 C 0,0 km/h (0 Bft)
01.06.2023 03:57 7,8 C 5,6 C 89 % 1021,6 hPa 0,0 l/m 0,0 km/h (0 Bft) N-NO 22 0 min 0,0 UV-I 0 W/m 6,1 C 7,8 C 0,0 km/h (0 Bft)
01.06.2023 04:00 7,8 C 5,6 C 89 % 1021,7 hPa 0,0 l/m 0,0 km/h (0 Bft) N-NO 23 0 min 0,0 UV-I 0 W/m 6,1 C 7,8 C 0,0 km/h (0 Bft)
01.06.2023 04:03 7,8 C 5,6 C 90 % 1021,7 hPa 0,0 l/m 0,0 km/h (0 Bft) N-NO 22 0 min 0,0 UV-I 0 W/m 6,3 C 7,8 C 0,0 km/h (0 Bft)
01.06.2023 04:06 7,8 C 5,6 C 90 % 1021,7 hPa 0,0 l/m 0,0 km/h (0 Bft) N-NO 22 0 min 0,0 UV-I 0 W/m 6,3 C 7,8 C 0,0 km/h (0 Bft)
01.06.2023 04:09 7,9 C 5,6 C 90 % 1021,6 hPa 0,0 l/m 0,0 km/h (0 Bft) N-NO 22 0 min 0,0 UV-I 0 W/m 6,4 C 7,9 C 0,0 km/h (0 Bft)
01.06.2023 04:12 8,1 C 5,6 C 90 % 1021,5 hPa 0,0 l/m 0,0 km/h (0 Bft) N-NO 22 0 min 0,0 UV-I 0 W/m 6,6 C 8,1 C 0,0 km/h (0 Bft)
01.06.2023 04:15 8,2 C 5,6 C 90 % 1021,6 hPa 0,0 l/m 0,0 km/h (0 Bft) N-NO 23 0 min 0,0 UV-I 0 W/m 6,7 C 8,2 C 0,0 km/h (0 Bft)
01.06.2023 04:18 8,1 C 5,6 C 90 % 1021,6 hPa 0,0 l/m 0,0 km/h (0 Bft) N-NO 22 0 min 0,0 UV-I 0 W/m 6,6 C 8,1 C 0,0 km/h (0 Bft)
01.06.2023 04:21 7,8 C 5,6 C 89 % 1021,5 hPa 0,0 l/m 0,0 km/h (0 Bft) N-NO 22 0 min 0,0 UV-I 0 W/m 6,1 C 7,8 C 0,0 km/h (0 Bft)
01.06.2023 04:24 7,6 C 5,6 C 89 % 1021,5 hPa 0,0 l/m 0,0 km/h (0 Bft) N-NO 22 0 min 0,0 UV-I 0 W/m 5,9 C 7,6 C 0,0 km/h (0 Bft)
01.06.2023 04:27 7,4 C 5,6 C 90 % 1021,4 hPa 0,0 l/m 0,0 km/h (0 Bft) N-NO 23 0 min 0,0 UV-I 0 W/m 5,9 C 7,4 C 0,0 km/h (0 Bft)
01.06.2023 04:30 7,3 C 5,6 C 90 % 1021,4 hPa 0,0 l/m 0,1 km/h (0 Bft) N-NO 22 0 min 0,0 UV-I 0 W/m 5,8 C 7,3 C 1,6 km/h (1 Bft)
01.06.2023 04:33 7,5 C 5,6 C 90 % 1021,5 hPa 0,0 l/m 0,0 km/h (0 Bft) N-NO 22 0 min 0,0 UV-I 0 W/m 6,0 C 7,5 C 0,0 km/h (0 Bft)
01.06.2023 04:36 7,5 C 5,6 C 90 % 1021,3 hPa 0,0 l/m 0,2 km/h (0 Bft) N-NO 22 0 min 0,0 UV-I 0 W/m 6,0 C 7,5 C 1,6 km/h (1 Bft)
01.06.2023 04:39 7,6 C 5,0 C 90 % 1021,4 hPa 0,0 l/m 0,0 km/h (0 Bft) N-NO 22 0 min 0,0 UV-I 0 W/m 6,1 C 7,6 C 1,6 km/h (1 Bft)
01.06.2023 04:42 7,4 C 5,0 C 90 % 1021,4 hPa 0,0 l/m 0,3 km/h (0 Bft) N-NO 22 0 min 0,0 UV-I 0 W/m 5,9 C 7,4 C 1,6 km/h (1 Bft)
01.06.2023 04:45 7,2 C 5,0 C 90 % 1021,5 hPa 0,0 l/m 0,4 km/h (0 Bft) N-NO 22 0 min 0,0 UV-I 0 W/m 5,7 C 7,2 C 3,2 km/h (1 Bft)
01.06.2023 04:48 7,2 C 5,0 C 90 % 1021,5 hPa 0,0 l/m 1,4 km/h (1 Bft) N-NO 22 0 min 0,0 UV-I 0 W/m 5,7 C 7,2 C 3,2 km/h (1 Bft)
01.06.2023 04:51 7,2 C 5,0 C 90 % 1021,5 hPa 0,0 l/m 1,4 km/h (1 Bft) N-NO 23 0 min 0,0 UV-I 0 W/m 5,7 C 7,2 C 3,2 km/h (1 Bft)
01.06.2023 04:54 7,3 C 5,0 C 91 % 1021,5 hPa 0,0 l/m 2,9 km/h (1 Bft) N-NO 22 0 min 0,0 UV-I 0 W/m 5,9 C 7,3 C 4,8 km/h (1 Bft)
01.06.2023 04:57 7,8 C 5,0 C 91 % 1021,6 hPa 0,0 l/m 2,3 km/h (1 Bft) N-NO 22 0 min 0,0 UV-I 0 W/m 6,4 C 7,8 C 4,8 km/h (1 Bft)
01.06.2023 05:00 7,7 C 5,0 C 90 % 1021,6 hPa 0,0 l/m 0,3 km/h (0 Bft) N-NO 23 0 min 0,0 UV-I 0 W/m 6,2 C 7,7 C 1,6 km/h (1 Bft)
01.06.2023 05:03 7,7 C 5,0 C 90 % 1021,6 hPa 0,0 l/m 0,9 km/h (0 Bft) N-NO 22 0 min 0,0 UV-I 0 W/m 6,2 C 7,7 C 3,2 km/h (1 Bft)
01.06.2023 05:06 8,1 C 5,0 C 91 % 1021,6 hPa 0,0 l/m 1,2 km/h (1 Bft) N-NO 22 0 min 0,0 UV-I 0 W/m 6,7 C 8,1 C 3,2 km/h (1 Bft)
01.06.2023 05:09 8,2 C 5,6 C 91 % 1021,7 hPa 0,0 l/m 0,1 km/h (0 Bft) N-NO 22 0 min 0,0 UV-I 0 W/m 6,8 C 8,2 C 1,6 km/h (1 Bft)
01.06.2023 05:12 8,1 C 5,6 C 90 % 1021,7 hPa 0,0 l/m 0,0 km/h (0 Bft) N-NO 22 0 min 0,0 UV-I 0 W/m 6,6 C 8,1 C 1,6 km/h (1 Bft)
01.06.2023 05:15 8,0 C 5,0 C 90 % 1021,7 hPa 0,0 l/m 0,0 km/h (0 Bft) N-NO 22 0 min 0,0 UV-I 0 W/m 6,5 C 8,0 C 0,0 km/h (0 Bft)
01.06.2023 05:18 7,6 C 5,0 C 90 % 1021,7 hPa 0,0 l/m 0,3 km/h (0 Bft) N-NO 22 0 min 0,0 UV-I 0 W/m 6,1 C 7,6 C 1,6 km/h (1 Bft)
01.06.2023 05:21 7,6 C 5,6 C 90 % 1021,7 hPa 0,0 l/m 0,0 km/h (0 Bft) N-NO 22 0 min 0,0 UV-I 0 W/m 6,1 C 7,6 C 1,6 km/h (1 Bft)
01.06.2023 05:24 7,5 C 5,6 C 90 % 1021,7 hPa 0,0 l/m 0,0 km/h (0 Bft) N-NO 23 0 min 0,0 UV-I 0 W/m 6,0 C 7,5 C 0,0 km/h (0 Bft)
01.06.2023 05:27 7,4 C 5,0 C 90 % 1021,6 hPa 0,0 l/m 0,0 km/h (0 Bft) N-NO 22 0 min 0,0 UV-I 0 W/m 5,9 C 7,4 C 1,6 km/h (1 Bft)
01.06.2023 05:30 7,2 C 5,0 C 90 % 1021,7 hPa 0,0 l/m 0,0 km/h (0 Bft) N-NO 22 0 min 0,0 UV-I 0 W/m 5,7 C 7,2 C 1,6 km/h (1 Bft)
01.06.2023 05:33 7,4 C 5,0 C 91 % 1021,7 hPa 0,0 l/m 0,4 km/h (0 Bft) N-NO 22 0 min 0,0 UV-I 1 W/m 6,0 C 7,4 C 1,6 km/h (1 Bft)
01.06.2023 05:36 7,7 C 5,0 C 91 % 1021,7 hPa 0,0 l/m 0,6 km/h (0 Bft) N-NO 22 0 min 0,0 UV-I 5 W/m 6,3 C 7,7 C 1,6 km/h (1 Bft)
01.06.2023 05:39 7,6 C 5,0 C 91 % 1021,7 hPa 0,0 l/m 1,1 km/h (1 Bft) N-NO 22 0 min 0,0 UV-I 6 W/m 6,2 C 7,6 C 1,6 km/h (1 Bft)
01.06.2023 05:42 7,5 C 5,6 C 90 % 1021,7 hPa 0,0 l/m 0,6 km/h (0 Bft) N-NO 22 0 min 0,0 UV-I 7 W/m 6,0 C 7,5 C 1,6 km/h (1 Bft)
01.06.2023 05:45 7,6 C 5,6 C 91 % 1021,6 hPa 0,0 l/m 0,0 km/h (0 Bft) N-NO 22 0 min 0,0 UV-I 8 W/m 6,2 C 7,6 C 0,0 km/h (0 Bft)
01.06.2023 05:48 7,8 C 5,6 C 91 % 1021,6 hPa 0,0 l/m 0,0 km/h (0 Bft) N-NO 22 0 min 0,0 UV-I 9 W/m 6,4 C 7,8 C 0,0 km/h (0 Bft)
01.06.2023 05:51 7,9 C 5,6 C 91 % 1021,6 hPa 0,0 l/m 0,0 km/h (0 Bft) N-NO 22 0 min 0,0 UV-I 11 W/m 6,5 C 7,9 C 0,0 km/h (0 Bft)
01.06.2023 05:54 7,7 C 5,6 C 90 % 1021,7 hPa 0,0 l/m 0,0 km/h (0 Bft) N-NO 22 0 min 0,0 UV-I 11 W/m 6,2 C 7,7 C 0,0 km/h (0 Bft)
01.06.2023 05:57 7,6 C 5,6 C 91 % 1021,7 hPa 0,0 l/m 0,0 km/h (0 Bft) N-NO 22 0 min 0,0 UV-I 12 W/m 6,2 C 7,6 C 0,0 km/h (0 Bft)
01.06.2023 06:00 7,4 C 5,6 C 90 % 1021,7 hPa 0,0 l/m 0,0 km/h (0 Bft) N-NO 22 0 min 0,0 UV-I 13 W/m 5,9 C 7,4 C 0,0 km/h (0 Bft)
01.06.2023 06:03 7,3 C 5,6 C 90 % 1021,6 hPa 0,0 l/m 0,0 km/h (0 Bft) N-NO 22 0 min 0,0 UV-I 15 W/m 5,8 C 7,3 C 0,0 km/h (0 Bft)
01.06.2023 06:06 7,3 C 5,6 C 91 % 1021,6 hPa 0,0 l/m 0,0 km/h (0 Bft) N-NO 22 0 min 0,0 UV-I 16 W/m 5,9 C 7,3 C 0,0 km/h (0 Bft)
01.06.2023 06:09 7,4 C 5,6 C 91 % 1021,6 hPa 0,0 l/m 0,0 km/h (0 Bft) N-NO 22 0 min 0,0 UV-I 17 W/m 6,0 C 7,4 C 0,0 km/h (0 Bft)
01.06.2023 06:12 7,6 C 5,6 C 91 % 1021,6 hPa 0,0 l/m 0,0 km/h (0 Bft) N-NO 22 0 min 0,0 UV-I 19 W/m 6,2 C 7,6 C 0,0 km/h (0 Bft)
01.06.2023 06:15 7,7 C 6,1 C 91 % 1021,7 hPa 0,0 l/m 0,0 km/h (0 Bft) N-NO 22 0 min 0,0 UV-I 20 W/m 6,3 C 7,7 C 0,0 km/h (0 Bft)
01.06.2023 06:18 7,6 C 6,1 C 90 % 1021,7 hPa 0,0 l/m 0,0 km/h (0 Bft) N-NO 23 0 min 0,0 UV-I 25 W/m 6,1 C 7,6 C 0,0 km/h (0 Bft)
01.06.2023 06:21 7,7 C 6,1 C 91 % 1021,6 hPa 0,0 l/m 0,0 km/h (0 Bft) N-NO 22 0 min 0,0 UV-I 29 W/m 6,3 C 7,7 C 0,0 km/h (0 Bft)
01.06.2023 06:24 7,7 C 6,1 C 91 % 1021,6 hPa 0,0 l/m 0,0 km/h (0 Bft) N-NO 22 0 min 0,0 UV-I 34 W/m 6,3 C 7,7 C 0,0 km/h (0 Bft)
01.06.2023 06:27 7,8 C 6,1 C 91 % 1021,6 hPa 0,0 l/m 0,0 km/h (0 Bft) N-NO 22 0 min 0,0 UV-I 39 W/m 6,4 C 7,8 C 0,0 km/h (0 Bft)
01.06.2023 06:30 7,8 C 6,1 C 90 % 1021,6 hPa 0,0 l/m 0,0 km/h (0 Bft) N-NO 22 0 min 0,0 UV-I 43 W/m 6,3 C 7,8 C 0,0 km/h (0 Bft)
01.06.2023 06:33 7,9 C 6,1 C 90 % 1021,6 hPa 0,0 l/m 0,0 km/h (0 Bft) N-NO 23 0 min 0,0 UV-I 48 W/m 6,4 C 7,9 C 0,0 km/h (0 Bft)
01.06.2023 06:36 8,0 C 6,7 C 90 % 1021,6 hPa 0,0 l/m 0,0 km/h (0 Bft) N-NO 23 0 min 0,0 UV-I 53 W/m 6,5 C 8,0 C 0,0 km/h (0 Bft)
01.06.2023 06:39 8,3 C 6,7 C 90 % 1021,7 hPa 0,0 l/m 0,0 km/h (0 Bft) N-NO 22 0 min 0,0 UV-I 59 W/m 6,8 C 8,3 C 0,0 km/h (0 Bft)
01.06.2023 06:42 8,4 C 6,7 C 90 % 1021,7 hPa 0,0 l/m 0,0 km/h (0 Bft) N-NO 22 0 min 0,0 UV-I 64 W/m 6,9 C 8,4 C 0,0 km/h (0 Bft)
01.06.2023 06:45 8,4 C 6,7 C 89 % 1021,6 hPa 0,0 l/m 0,0 km/h (0 Bft) N-NO 22 0 min 0,0 UV-I 70 W/m 6,7 C 8,4 C 0,0 km/h (0 Bft)
01.06.2023 06:48 8,5 C 6,7 C 89 % 1021,6 hPa 0,0 l/m 0,0 km/h (0 Bft) N-NO 22 0 min 0,0 UV-I 76 W/m 6,8 C 8,5 C 1,6 km/h (1 Bft)
01.06.2023 06:51 8,6 C 7,2 C 89 % 1021,6 hPa 0,0 l/m 0,0 km/h (0 Bft) N-NO 22 0 min 0,0 UV-I 84 W/m 6,9 C 8,6 C 0,0 km/h (0 Bft)
01.06.2023 06:54 8,7 C 7,2 C 89 % 1021,6 hPa 0,0 l/m 0,0 km/h (0 Bft) N-NO 22 0 min 0,0 UV-I 90 W/m 7,0 C 8,7 C 0,0 km/h (0 Bft)
01.06.2023 06:57 8,8 C 7,8 C 89 % 1021,6 hPa 0,0 l/m 0,0 km/h (0 Bft) N-NO 23 0 min 0,0 UV-I 97 W/m 7,1 C 8,8 C 0,0 km/h (0 Bft)
01.06.2023 07:00 8,9 C 8,3 C 89 % 1021,6 hPa 0,0 l/m 0,0 km/h (0 Bft) N-NO 22 0 min 0,2 UV-I 104 W/m 7,2 C 8,9 C 0,0 km/h (0 Bft)
01.06.2023 07:01 9,0 C 8,3 C 89 % 1021,6 hPa 0,0 l/m 0,0 km/h (0 Bft) N 0 0 min 0,5 UV-I 109 W/m 7,3 C 9,0 C 0,0 km/h (0 Bft)
01.06.2023 07:03 9,2 C 8,9 C 89 % 1021,6 hPa 0,0 l/m 0,0 km/h (0 Bft) N-NO 23 0 min 0,5 UV-I 114 W/m 7,5 C 9,2 C 0,0 km/h (0 Bft)
01.06.2023 07:06 9,5 C 9,4 C 88 % 1021,6 hPa 0,0 l/m 0,0 km/h (0 Bft) N-NO 23 0 min 0,5 UV-I 118 W/m 7,6 C 9,5 C 0,0 km/h (0 Bft)
01.06.2023 07:09 9,7 C 10,0 C 88 % 1021,6 hPa 0,0 l/m 0,0 km/h (0 Bft) N-NO 23 0 min 0,5 UV-I 120 W/m 7,8 C 9,7 C 0,0 km/h (0 Bft)
01.06.2023 07:12 9,9 C 10,6 C 88 % 1021,6 hPa 0,0 l/m 0,0 km/h (0 Bft) N-NO 23 0 min 0,6 UV-I 120 W/m 8,0 C 9,9 C 0,0 km/h (0 Bft)
01.06.2023 07:15 10,1 C 11,1 C 87 % 1021,7 hPa 0,0 l/m 0,0 km/h (0 Bft) N-NO 22 0 min 0,6 UV-I 121 W/m 8,0 C 10,1 C 0,0 km/h (0 Bft)
01.06.2023 07:18 10,3 C 11,1 C 87 % 1021,6 hPa 0,0 l/m 0,0 km/h (0 Bft) N-NO 23 0 min 0,6 UV-I 129 W/m 8,2 C 10,3 C 1,6 km/h (1 Bft)
01.06.2023 07:21 10,5 C 11,1 C 86 % 1021,6 hPa 0,0 l/m 0,0 km/h (0 Bft) N-NO 22 3 min 0,7 UV-I 143 W/m 8,3 C 10,5 C 0,0 km/h (0 Bft)
01.06.2023 07:24 10,7 C 11,7 C 87 % 1021,7 hPa 0,0 l/m 0,1 km/h (0 Bft) N-NO 22 3 min 0,7 UV-I 161 W/m 8,6 C 10,7 C 1,6 km/h (1 Bft)
01.06.2023 07:27 11,1 C 11,7 C 87 % 1021,5 hPa 0,0 l/m 0,9 km/h (0 Bft) N-NO 23 3 min 0,7 UV-I 175 W/m 9,0 C 11,1 C 3,2 km/h (1 Bft)
01.06.2023 07:30 11,3 C 12,2 C 87 % 1021,5 hPa 0,0 l/m 0,7 km/h (0 Bft) N-NO 23 3 min 0,8 UV-I 184 W/m 9,2 C 11,3 C 3,2 km/h (1 Bft)
01.06.2023 07:33 11,7 C 12,2 C 86 % 1021,5 hPa 0,0 l/m 1,7 km/h (1 Bft) N-NO 23 3 min 0,8 UV-I 192 W/m 9,4 C 11,7 C 4,8 km/h (1 Bft)
01.06.2023 07:37 12,0 C 12,2 C 86 % 1021,5 hPa 0,0 l/m 2,3 km/h (1 Bft) N-NO 22 4 min 0,9 UV-I 202 W/m 9,7 C 12,0 C 4,8 km/h (1 Bft)
01.06.2023 07:39 12,1 C 12,2 C 85 % 1021,5 hPa 0,0 l/m 2,3 km/h (1 Bft) N-NO 23 2 min 0,9 UV-I 210 W/m 9,7 C 12,1 C 4,8 km/h (1 Bft)
01.06.2023 07:42 12,3 C 12,2 C 84 % 1021,6 hPa 0,0 l/m 2,4 km/h (1 Bft) N-NO 22 3 min 1,0 UV-I 215 W/m 9,7 C 12,3 C 4,8 km/h (1 Bft)
01.06.2023 07:45 12,3 C 12,2 C 83 % 1021,6 hPa 0,0 l/m 0,9 km/h (0 Bft) N-NO 22 3 min 1,0 UV-I 223 W/m 9,5 C 12,3 C 3,2 km/h (1 Bft)
01.06.2023 07:48 12,5 C 12,2 C 84 % 1021,6 hPa 0,0 l/m 2,3 km/h (1 Bft) N-NO 23 3 min 1,1 UV-I 230 W/m 9,9 C 12,5 C 3,2 km/h (1 Bft)
01.06.2023 07:51 12,7 C 12,2 C 83 % 1021,5 hPa 0,0 l/m 2,4 km/h (1 Bft) N-NO 23 3 min 1,1 UV-I 238 W/m 9,9 C 12,7 C 4,8 km/h (1 Bft)
01.06.2023 07:54 13,0 C 12,8 C 82 % 1021,6 hPa 0,0 l/m 2,5 km/h (1 Bft) N-NO 22 3 min 1,1 UV-I 246 W/m 10,0 C 13,0 C 4,8 km/h (1 Bft)
01.06.2023 07:57 13,3 C 13,3 C 82 % 1021,5 hPa 0,0 l/m 0,4 km/h (0 Bft) N-NO 23 3 min 1,2 UV-I 253 W/m 10,3 C 13,3 C 1,6 km/h (1 Bft)
01.06.2023 08:00 13,6 C 13,9 C 81 % 1021,6 hPa 0,0 l/m 2,0 km/h (1 Bft) N-NO 22 3 min 1,2 UV-I 260 W/m 10,4 C 13,6 C 4,8 km/h (1 Bft)
01.06.2023 08:03 13,8 C 14,4 C 81 % 1021,4 hPa 0,0 l/m 2,6 km/h (1 Bft) N-NO 22 3 min 1,3 UV-I 269 W/m 10,6 C 13,8 C 4,8 km/h (1 Bft)
01.06.2023 08:06 14,1 C 15,0 C 80 % 1021,5 hPa 0,0 l/m 3,3 km/h (1 Bft) N-NO 22 3 min 1,3 UV-I 276 W/m 10,7 C 14,1 C 4,8 km/h (1 Bft)
01.06.2023 08:09 14,2 C 15,0 C 80 % 1021,5 hPa 0,0 l/m 3,1 km/h (1 Bft) N-NO 22 3 min 1,4 UV-I 285 W/m 10,8 C 14,2 C 4,8 km/h (1 Bft)
01.06.2023 08:12 14,4 C 15,0 C 80 % 1021,4 hPa 0,0 l/m 3,3 km/h (1 Bft) N-NO 22 3 min 1,4 UV-I 295 W/m 11,0 C 14,4 C 4,8 km/h (1 Bft)
01.06.2023 08:15 14,6 C 15,0 C 79 % 1021,4 hPa 0,0 l/m 3,3 km/h (1 Bft) N-NO 22 3 min 1,5 UV-I 307 W/m 11,0 C 14,6 C 6,4 km/h (2 Bft)
01.06.2023 08:18 14,7 C 15,6 C 79 % 1021,5 hPa 0,0 l/m 4,3 km/h (1 Bft) N-NO 33 3 min 1,5 UV-I 317 W/m 11,1 C 14,7 C 6,4 km/h (2 Bft)
01.06.2023 08:21 15,0 C 15,6 C 78 % 1021,4 hPa 0,0 l/m 1,9 km/h (1 Bft) N-NO 33 3 min 1,6 UV-I 326 W/m 11,2 C 15,0 C 3,2 km/h (1 Bft)
01.06.2023 08:24 15,1 C 15,6 C 77 % 1021,4 hPa 0,0 l/m 3,4 km/h (1 Bft) NO 34 3 min 1,6 UV-I 335 W/m 11,1 C 15,1 C 4,8 km/h (1 Bft)
01.06.2023 08:27 15,3 C 16,1 C 76 % 1021,4 hPa 0,0 l/m 3,9 km/h (1 Bft) NO 34 3 min 1,7 UV-I 343 W/m 11,1 C 15,3 C 6,4 km/h (2 Bft)
01.06.2023 08:30 15,4 C 16,1 C 76 % 1021,4 hPa 0,0 l/m 3,4 km/h (1 Bft) NO 34 3 min 1,7 UV-I 353 W/m 11,2 C 15,4 C 4,8 km/h (1 Bft)
01.06.2023 08:33 15,6 C 16,7 C 75 % 1021,4 hPa 0,0 l/m 3,9 km/h (1 Bft) NO 34 3 min 1,8 UV-I 362 W/m 11,2 C 15,6 C 6,4 km/h (2 Bft)
01.06.2023 08:36 15,8 C 17,2 C 76 % 1021,3 hPa 0,0 l/m 4,2 km/h (1 Bft) N-NO 26 3 min 1,8 UV-I 370 W/m 11,6 C 15,8 C 9,7 km/h (2 Bft)
01.06.2023 08:39 15,9 C 17,2 C 74 % 1021,3 hPa 0,0 l/m 6,1 km/h (2 Bft) N-NO 12 3 min 1,9 UV-I 378 W/m 11,3 C 15,9 C 11,3 km/h (2 Bft)
01.06.2023 08:42 16,0 C 17,8 C 74 % 1021,3 hPa 0,0 l/m 7,5 km/h (2 Bft) N-NO 21 3 min 1,9 UV-I 385 W/m 11,4 C 15,4 C 12,9 km/h (3 Bft)
01.06.2023 08:45 16,1 C 17,8 C 73 % 1021,3 hPa 0,0 l/m 6,9 km/h (2 Bft) N-NO 32 3 min 2,0 UV-I 393 W/m 11,3 C 15,8 C 11,3 km/h (2 Bft)
01.06.2023 08:48 16,0 C 17,8 C 72 % 1021,3 hPa 0,0 l/m 7,8 km/h (2 Bft) NO 35 3 min 2,0 UV-I 401 W/m 11,0 C 15,3 C 12,9 km/h (3 Bft)
01.06.2023 08:51 16,2 C 18,3 C 72 % 1021,2 hPa 0,0 l/m 6,6 km/h (2 Bft) N-NO 26 3 min 2,1 UV-I 409 W/m 11,1 C 16,1 C 11,3 km/h (2 Bft)
01.06.2023 08:54 16,3 C 18,3 C 72 % 1021,4 hPa 0,0 l/m 6,6 km/h (2 Bft) NO 50 3 min 2,2 UV-I 417 W/m 11,2 C 16,2 C 9,7 km/h (2 Bft)
01.06.2023 08:57 16,4 C 18,9 C 72 % 1021,3 hPa 0,0 l/m 5,7 km/h (1 Bft) NO 34 3 min 2,2 UV-I 425 W/m 11,3 C 16,4 C 8,0 km/h (2 Bft)
01.06.2023 09:00 16,7 C 18,9 C 72 % 1021,4 hPa 0,0 l/m 6,4 km/h (2 Bft) N-NO 21 3 min 2,2 UV-I 433 W/m 11,6 C 16,7 C 12,9 km/h (3 Bft)
01.06.2023 09:03 16,8 C 18,9 C 71 % 1021,4 hPa 0,0 l/m 6,3 km/h (2 Bft) O-NO 76 3 min 2,3 UV-I 440 W/m 11,5 C 16,8 C 8,0 km/h (2 Bft)
01.06.2023 09:07 16,8 C 18,3 C 70 % 1021,4 hPa 0,0 l/m 7,2 km/h (2 Bft) NO 35 4 min 2,4 UV-I 449 W/m 11,3 C 16,4 C 11,3 km/h (2 Bft)
01.06.2023 09:09 16,9 C 18,3 C 69 % 1021,4 hPa 0,0 l/m 7,5 km/h (2 Bft) NO 46 2 min 2,4 UV-I 458 W/m 11,2 C 16,3 C 11,3 km/h (2 Bft)
01.06.2023 09:12 17,1 C 18,9 C 69 % 1021,5 hPa 0,0 l/m 7,9 km/h (2 Bft) N 5 3 min 2,5 UV-I 465 W/m 11,4 C 16,4 C 16,1 km/h (3 Bft)
01.06.2023 09:15 17,4 C 19,4 C 69 % 1021,5 hPa 0,0 l/m 8,0 km/h (2 Bft) N-NO 19 3 min 2,5 UV-I 473 W/m 11,7 C 16,6 C 14,5 km/h (3 Bft)
01.06.2023 09:18 17,4 C 19,4 C 70 % 1021,5 hPa 0,0 l/m 8,4 km/h (2 Bft) N-NW 347 3 min 2,6 UV-I 480 W/m 11,9 C 16,4 C 12,9 km/h (3 Bft)
01.06.2023 09:21 17,6 C 20,6 C 68 % 1021,3 hPa 0,0 l/m 9,1 km/h (2 Bft) N-NO 21 3 min 2,7 UV-I 487 W/m 11,6 C 16,4 C 12,9 km/h (3 Bft)
01.06.2023 09:24 17,6 C 20,6 C 68 % 1021,4 hPa 0,0 l/m 9,3 km/h (2 Bft) N-NO 15 3 min 2,7 UV-I 495 W/m 11,6 C 16,3 C 14,5 km/h (3 Bft)
01.06.2023 09:27 17,6 C 20,0 C 70 % 1021,4 hPa 0,0 l/m 7,7 km/h (2 Bft) N-NW 346 3 min 2,8 UV-I 503 W/m 12,1 C 17,0 C 12,9 km/h (3 Bft)
01.06.2023 09:30 17,7 C 20,6 C 69 % 1021,4 hPa 0,0 l/m 9,4 km/h (2 Bft) N 5 3 min 2,9 UV-I 508 W/m 11,9 C 16,3 C 14,5 km/h (3 Bft)
01.06.2023 09:33 17,8 C 20,6 C 68 % 1021,4 hPa 0,0 l/m 8,1 km/h (2 Bft) N 350 3 min 2,9 UV-I 511 W/m 11,8 C 17,0 C 14,5 km/h (3 Bft)
01.06.2023 09:36 17,9 C 20,0 C 66 % 1021,3 hPa 0,0 l/m 9,6 km/h (2 Bft) N-NW 338 3 min 3,0 UV-I 512 W/m 11,5 C 16,5 C 14,5 km/h (3 Bft)
01.06.2023 09:39 17,9 C 20,0 C 66 % 1021,4 hPa 0,0 l/m 10,3 km/h (2 Bft) N-NW 344 3 min 3,0 UV-I 509 W/m 11,5 C 16,2 C 14,5 km/h (3 Bft)
01.06.2023 09:42 17,8 C 19,4 C 67 % 1021,3 hPa 0,0 l/m 10,8 km/h (2 Bft) N 349 3 min 3,1 UV-I 507 W/m 11,6 C 15,9 C 14,5 km/h (3 Bft)
01.06.2023 09:45 17,8 C 19,4 C 66 % 1021,4 hPa 0,0 l/m 9,1 km/h (2 Bft) N 355 3 min 3,1 UV-I 502 W/m 11,4 C 16,6 C 14,5 km/h (3 Bft)
01.06.2023 09:48 17,9 C 19,4 C 66 % 1021,3 hPa 0,0 l/m 9,2 km/h (2 Bft) N 360 3 min 3,2 UV-I 497 W/m 11,5 C 16,6 C 14,5 km/h (3 Bft)
01.06.2023 09:51 17,9 C 18,9 C 66 % 1021,4 hPa 0,0 l/m 10,6 km/h (2 Bft) N 360 3 min 3,3 UV-I 488 W/m 11,5 C 16,1 C 16,1 km/h (3 Bft)
01.06.2023 09:54 17,8 C 18,9 C 67 % 1021,3 hPa 0,0 l/m 10,6 km/h (2 Bft) N 355 3 min 3,3 UV-I 482 W/m 11,6 C 16,0 C 14,5 km/h (3 Bft)
01.06.2023 09:57 18,1 C 20,0 C 67 % 1021,3 hPa 0,0 l/m 9,3 km/h (2 Bft) N 11 3 min 3,4 UV-I 477 W/m 11,9 C 16,8 C 16,1 km/h (3 Bft)
01.06.2023 10:00 18,2 C 20,0 C 67 % 1021,2 hPa 0,0 l/m 12,4 km/h (3 Bft) N 5 3 min 3,5 UV-I 474 W/m 12,0 C 15,8 C 17,7 km/h (3 Bft)
01.06.2023 10:03 18,1 C 20,6 C 66 % 1021,3 hPa 0,0 l/m 11,6 km/h (2 Bft) NO 34 3 min 3,5 UV-I 474 W/m 11,6 C 16,0 C 17,7 km/h (3 Bft)
01.06.2023 10:06 18,2 C 20,0 C 65 % 1021,4 hPa 0,0 l/m 10,0 km/h (2 Bft) N-NO 25 3 min 3,6 UV-I 475 W/m 11,5 C 16,7 C 14,5 km/h (3 Bft)
01.06.2023 10:09 18,4 C 20,0 C 65 % 1021,4 hPa 0,0 l/m 7,8 km/h (2 Bft) N 11 3 min 3,7 UV-I 481 W/m 11,7 C 17,8 C 12,9 km/h (3 Bft)
01.06.2023 10:12 18,7 C 20,0 C 65 % 1021,3 hPa 0,0 l/m 9,0 km/h (2 Bft) N 5 3 min 3,8 UV-I 490 W/m 12,0 C 17,6 C 17,7 km/h (3 Bft)
01.06.2023 10:15 18,8 C 20,0 C 64 % 1021,3 hPa 0,0 l/m 9,7 km/h (2 Bft) N-NO 14 3 min 3,8 UV-I 498 W/m 11,8 C 17,4 C 17,7 km/h (3 Bft)
01.06.2023 10:18 19,0 C 21,1 C 63 % 1021,2 hPa 0,0 l/m 10,0 km/h (2 Bft) N 355 3 min 3,9 UV-I 512 W/m 11,8 C 17,5 C 16,1 km/h (3 Bft)
01.06.2023 10:22 18,9 C 21,7 C 63 % 1021,2 hPa 0,0 l/m 7,4 km/h (2 Bft) N-NO 19 4 min 3,9 UV-I 536 W/m 11,7 C 18,5 C 17,7 km/h (3 Bft)
01.06.2023 10:24 18,9 C 21,1 C 62 % 1021,3 hPa 0,0 l/m 10,0 km/h (2 Bft) N-NW 338 2 min 4,0 UV-I 553 W/m 11,5 C 17,4 C 14,5 km/h (3 Bft)
01.06.2023 10:27 19,1 C 21,7 C 61 % 1021,2 hPa 0,0 l/m 11,8 km/h (2 Bft) N 355 3 min 4,0 UV-I 572 W/m 11,4 C 17,1 C 19,3 km/h (3 Bft)
01.06.2023 10:30 19,2 C 22,2 C 63 % 1021,2 hPa 0,0 l/m 12,4 km/h (3 Bft) N 355 3 min 4,0 UV-I 598 W/m 12,0 C 17,0 C 17,7 km/h (3 Bft)
01.06.2023 10:33 19,1 C 22,2 C 61 % 1021,2 hPa 0,0 l/m 16,5 km/h (3 Bft) N 9 3 min 4,1 UV-I 590 W/m 11,4 C 15,8 C 20,9 km/h (4 Bft)
01.06.2023 10:36 19,2 C 22,2 C 61 % 1021,2 hPa 0,0 l/m 10,4 km/h (2 Bft) N 5 3 min 4,2 UV-I 636 W/m 11,5 C 17,6 C 17,7 km/h (3 Bft)
01.06.2023 10:39 19,2 C 22,8 C 62 % 1021,3 hPa 0,0 l/m 13,3 km/h (3 Bft) N-NW 344 3 min 4,3 UV-I 660 W/m 11,7 C 16,7 C 19,3 km/h (3 Bft)
01.06.2023 10:42 19,3 C 22,8 C 61 % 1021,2 hPa 0,0 l/m 9,5 km/h (2 Bft) N-NO 20 3 min 4,3 UV-I 665 W/m 11,6 C 18,0 C 17,7 km/h (3 Bft)
01.06.2023 10:45 19,4 C 22,8 C 63 % 1021,1 hPa 0,0 l/m 11,1 km/h (2 Bft) N-NW 343 3 min 4,4 UV-I 682 W/m 12,2 C 17,6 C 16,1 km/h (3 Bft)
01.06.2023 10:48 19,4 C 22,8 C 60 % 1021,2 hPa 0,0 l/m 14,2 km/h (3 Bft) N-NW 342 3 min 4,4 UV-I 675 W/m 11,4 C 16,7 C 20,9 km/h (4 Bft)
01.06.2023 10:51 19,6 C 23,3 C 59 % 1021,2 hPa 0,0 l/m 13,6 km/h (3 Bft) N-NO 22 3 min 4,6 UV-I 703 W/m 11,4 C 17,1 C 17,7 km/h (3 Bft)
01.06.2023 10:54 19,6 C 23,3 C 62 % 1021,2 hPa 0,0 l/m 12,4 km/h (3 Bft) N 360 3 min 4,6 UV-I 694 W/m 12,1 C 17,5 C 20,9 km/h (4 Bft)
01.06.2023 10:57 19,4 C 24,4 C 59 % 1021,1 hPa 0,0 l/m 12,7 km/h (3 Bft) N 349 3 min 4,7 UV-I 711 W/m 11,2 C 17,1 C 19,3 km/h (3 Bft)
01.06.2023 11:00 19,4 C 25,0 C 59 % 1021,2 hPa 0,0 l/m 14,0 km/h (3 Bft) N 5 3 min 4,8 UV-I 723 W/m 11,2 C 16,8 C 17,7 km/h (3 Bft)
01.06.2023 11:03 19,6 C 25,6 C 58 % 1021,3 hPa 0,0 l/m 14,1 km/h (3 Bft) N 350 3 min 4,8 UV-I 724 W/m 11,1 C 17,0 C 22,5 km/h (4 Bft)
01.06.2023 11:06 19,6 C 26,1 C 60 % 1021,1 hPa 0,0 l/m 14,6 km/h (3 Bft) N-NO 24 3 min 4,8 UV-I 723 W/m 11,6 C 16,9 C 20,9 km/h (4 Bft)
01.06.2023 11:09 19,6 C 26,1 C 61 % 1021,1 hPa 0,0 l/m 12,7 km/h (3 Bft) N-NO 22 3 min 4,9 UV-I 710 W/m 11,9 C 17,4 C 20,9 km/h (4 Bft)
01.06.2023 11:12 19,3 C 25,6 C 60 % 1021,1 hPa 0,0 l/m 10,8 km/h (2 Bft) W-NW 297 3 min 4,9 UV-I 728 W/m 11,3 C 17,6 C 17,7 km/h (3 Bft)
01.06.2023 11:15 19,5 C 26,7 C 58 % 1021,1 hPa 0,0 l/m 10,7 km/h (2 Bft) N-NW 344 3 min 5,1 UV-I 748 W/m 11,0 C 17,9 C 17,7 km/h (3 Bft)
01.06.2023 11:18 19,7 C 27,2 C 60 % 1021,1 hPa 0,0 l/m 13,8 km/h (3 Bft) N-NO 18 3 min 5,0 UV-I 732 W/m 11,7 C 17,2 C 17,7 km/h (3 Bft)
01.06.2023 11:21 19,9 C 27,2 C 60 % 1021,1 hPa 0,0 l/m 10,9 km/h (2 Bft) N 10 3 min 5,1 UV-I 750 W/m 11,9 C 18,2 C 16,1 km/h (3 Bft)
01.06.2023 11:24 19,6 C 27,2 C 59 % 1021,1 hPa 0,0 l/m 13,3 km/h (3 Bft) N-NW 348 3 min 5,2 UV-I 755 W/m 11,4 C 17,2 C 20,9 km/h (4 Bft)
01.06.2023 11:27 19,6 C 26,7 C 59 % 1021,0 hPa 0,0 l/m 11,0 km/h (2 Bft) N-NW 346 3 min 5,3 UV-I 765 W/m 11,4 C 17,9 C 20,9 km/h (4 Bft)
01.06.2023 11:30 19,7 C 26,7 C 60 % 1020,9 hPa 0,0 l/m 9,0 km/h (2 Bft) NW 323 3 min 5,3 UV-I 767 W/m 11,7 C 18,7 C 19,3 km/h (3 Bft)
01.06.2023 11:33 20,1 C 27,2 C 60 % 1021,0 hPa 0,0 l/m 9,0 km/h (2 Bft) N-NW 333 3 min 5,4 UV-I 778 W/m 12,1 C 19,1 C 16,1 km/h (3 Bft)
01.06.2023 11:36 19,9 C 26,7 C 61 % 1020,9 hPa 0,0 l/m 9,7 km/h (2 Bft) W-NW 296 3 min 5,4 UV-I 772 W/m 12,2 C 18,6 C 16,1 km/h (3 Bft)
01.06.2023 11:39 20,0 C 26,7 C 61 % 1021,0 hPa 0,0 l/m 8,2 km/h (2 Bft) N-NW 333 3 min 5,5 UV-I 777 W/m 12,2 C 19,3 C 19,3 km/h (3 Bft)
01.06.2023 11:42 19,8 C 26,7 C 58 % 1020,9 hPa 0,0 l/m 16,5 km/h (3 Bft) N 351 3 min 5,6 UV-I 789 W/m 11,3 C 16,7 C 22,5 km/h (4 Bft)
01.06.2023 11:45 20,1 C 27,2 C 60 % 1021,0 hPa 0,0 l/m 9,9 km/h (2 Bft) NW 325 3 min 5,6 UV-I 791 W/m 12,1 C 18,8 C 16,1 km/h (3 Bft)
01.06.2023 11:48 20,1 C 27,8 C 58 % 1021,0 hPa 0,0 l/m 13,3 km/h (3 Bft) N 355 3 min 5,7 UV-I 801 W/m 11,6 C 17,8 C 24,1 km/h (4 Bft)
01.06.2023 11:51 20,0 C 26,7 C 57 % 1021,0 hPa 0,0 l/m 10,6 km/h (2 Bft) N-NW 334 3 min 5,6 UV-I 775 W/m 11,2 C 18,4 C 17,7 km/h (3 Bft)
01.06.2023 11:54 20,1 C 26,7 C 59 % 1020,9 hPa 0,0 l/m 12,1 km/h (2 Bft) N-NW 329 3 min 5,6 UV-I 780 W/m 11,8 C 18,1 C 25,7 km/h (4 Bft)
01.06.2023 11:57 20,1 C 27,2 C 59 % 1020,9 hPa 0,0 l/m 15,3 km/h (3 Bft) N-NW 329 3 min 5,8 UV-I 800 W/m 11,8 C 17,3 C 20,9 km/h (4 Bft)
01.06.2023 12:00 20,0 C 27,8 C 59 % 1020,9 hPa 0,0 l/m 12,8 km/h (3 Bft) N 360 3 min 5,8 UV-I 805 W/m 11,7 C 17,8 C 20,9 km/h (4 Bft)
01.06.2023 12:03 20,2 C 28,3 C 60 % 1021,0 hPa 0,0 l/m 12,4 km/h (3 Bft) N 9 3 min 5,9 UV-I 824 W/m 12,2 C 18,1 C 22,5 km/h (4 Bft)
01.06.2023 12:06 20,2 C 28,3 C 59 % 1020,9 hPa 0,0 l/m 11,0 km/h (2 Bft) N 355 3 min 6,0 UV-I 831 W/m 11,9 C 18,6 C 20,9 km/h (4 Bft)
01.06.2023 12:09 20,3 C 28,9 C 57 % 1020,9 hPa 0,0 l/m 11,8 km/h (2 Bft) N 5 3 min 6,0 UV-I 829 W/m 11,5 C 18,4 C 17,7 km/h (3 Bft)
01.06.2023 12:12 20,3 C 27,8 C 56 % 1021,0 hPa 0,0 l/m 11,0 km/h (2 Bft) N 360 3 min 5,9 UV-I 819 W/m 11,2 C 18,7 C 19,3 km/h (3 Bft)
01.06.2023 12:15 20,2 C 27,8 C 57 % 1021,0 hPa 0,0 l/m 7,4 km/h (2 Bft) N-NO 30 3 min 6,0 UV-I 823 W/m 11,4 C 19,8 C 16,1 km/h (3 Bft)
01.06.2023 12:18 20,3 C 28,3 C 58 % 1021,0 hPa 0,0 l/m 6,0 km/h (2 Bft) N-NW 346 3 min 6,0 UV-I 815 W/m 11,8 C 20,3 C 17,7 km/h (3 Bft)
01.06.2023 12:21 20,6 C 28,9 C 55 % 1021,0 hPa 0,0 l/m 11,3 km/h (2 Bft) N-NO 24 3 min 6,1 UV-I 823 W/m 11,2 C 18,9 C 17,7 km/h (3 Bft)
01.06.2023 12:24 20,4 C 27,8 C 56 % 1021,0 hPa 0,0 l/m 12,5 km/h (3 Bft) N 355 3 min 6,2 UV-I 833 W/m 11,3 C 18,4 C 17,7 km/h (3 Bft)
01.06.2023 12:27 20,5 C 28,3 C 55 % 1021,0 hPa 0,0 l/m 12,0 km/h (2 Bft) N-NW 346 3 min 6,2 UV-I 850 W/m 11,1 C 18,6 C 17,7 km/h (3 Bft)
01.06.2023 12:30 20,6 C 28,9 C 56 % 1020,9 hPa 0,0 l/m 12,1 km/h (2 Bft) N-NO 21 3 min 6,2 UV-I 826 W/m 11,5 C 18,7 C 17,7 km/h (3 Bft)
01.06.2023 12:33 20,4 C 28,3 C 55 % 1020,9 hPa 0,0 l/m 13,8 km/h (3 Bft) N-NW 335 3 min 6,2 UV-I 841 W/m 11,1 C 18,0 C 19,3 km/h (3 Bft)
01.06.2023 12:36 20,6 C 28,3 C 58 % 1020,9 hPa 0,0 l/m 12,5 km/h (3 Bft) N 10 3 min 6,2 UV-I 840 W/m 12,0 C 18,6 C 19,3 km/h (3 Bft)
01.06.2023 12:39 20,4 C 28,9 C 56 % 1020,9 hPa 0,0 l/m 13,6 km/h (3 Bft) N 355 3 min 6,2 UV-I 841 W/m 11,3 C 18,1 C 20,9 km/h (4 Bft)
01.06.2023 12:42 20,3 C 28,9 C 55 % 1020,9 hPa 0,0 l/m 14,5 km/h (3 Bft) N-NO 28 3 min 6,3 UV-I 843 W/m 11,0 C 17,7 C 22,5 km/h (4 Bft)
01.06.2023 12:45 20,1 C 28,3 C 56 % 1020,8 hPa 0,0 l/m 12,7 km/h (3 Bft) N-NO 25 3 min 6,2 UV-I 825 W/m 11,0 C 18,0 C 17,7 km/h (3 Bft)
01.06.2023 12:48 20,3 C 28,3 C 58 % 1020,8 hPa 0,0 l/m 12,8 km/h (3 Bft) N-NO 16 3 min 6,2 UV-I 842 W/m 11,8 C 18,2 C 17,7 km/h (3 Bft)
01.06.2023 12:51 20,7 C 29,4 C 62 % 1020,8 hPa 0,0 l/m 10,3 km/h (2 Bft) N 5 3 min 6,4 UV-I 864 W/m 13,2 C 19,3 C 25,7 km/h (4 Bft)
01.06.2023 12:54 20,5 C 28,9 C 56 % 1020,9 hPa 0,0 l/m 10,6 km/h (2 Bft) N-NO 17 3 min 6,4 UV-I 856 W/m 11,4 C 19,0 C 17,7 km/h (3 Bft)
01.06.2023 12:57 20,7 C 29,4 C 60 % 1020,9 hPa 0,0 l/m 13,7 km/h (3 Bft) N 355 3 min 6,4 UV-I 863 W/m 12,7 C 18,4 C 19,3 km/h (3 Bft)
01.06.2023 13:00 20,3 C 30,0 C 57 % 1020,8 hPa 0,0 l/m 10,4 km/h (2 Bft) N 5 3 min 6,5 UV-I 875 W/m 11,5 C 18,8 C 17,7 km/h (3 Bft)
01.06.2023 13:03 20,6 C 30,0 C 60 % 1020,8 hPa 0,0 l/m 12,6 km/h (3 Bft) N 11 3 min 6,4 UV-I 859 W/m 12,6 C 18,6 C 19,3 km/h (3 Bft)
01.06.2023 13:06 20,3 C 28,9 C 55 % 1020,8 hPa 0,0 l/m 11,6 km/h (2 Bft) N 9 3 min 6,4 UV-I 856 W/m 11,0 C 18,5 C 19,3 km/h (3 Bft)
01.06.2023 13:09 20,1 C 29,4 C 56 % 1020,8 hPa 0,0 l/m 11,4 km/h (2 Bft) N-NO 15 3 min 6,5 UV-I 874 W/m 11,0 C 18,3 C 17,7 km/h (3 Bft)
01.06.2023 13:12 20,1 C 30,0 C 54 % 1020,7 hPa 0,0 l/m 15,5 km/h (3 Bft) N 350 3 min 6,6 UV-I 887 W/m 10,5 C 17,3 C 20,9 km/h (4 Bft)
01.06.2023 13:15 20,1 C 30,6 C 57 % 1020,8 hPa 0,0 l/m 12,4 km/h (3 Bft) N-NO 24 3 min 6,6 UV-I 891 W/m 11,3 C 18,0 C 22,5 km/h (4 Bft)
01.06.2023 13:18 19,8 C 29,4 C 57 % 1020,7 hPa 0,0 l/m 9,2 km/h (2 Bft) N 5 3 min 6,5 UV-I 869 W/m 11,0 C 18,7 C 19,3 km/h (3 Bft)
01.06.2023 13:21 20,3 C 29,4 C 57 % 1020,8 hPa 0,0 l/m 11,5 km/h (2 Bft) N-NO 26 3 min 6,6 UV-I 886 W/m 11,5 C 18,5 C 19,3 km/h (3 Bft)
01.06.2023 13:24 20,5 C 30,6 C 57 % 1020,8 hPa 0,0 l/m 14,3 km/h (3 Bft) N 9 3 min 6,6 UV-I 877 W/m 11,7 C 18,0 C 22,5 km/h (4 Bft)
01.06.2023 13:27 20,4 C 30,0 C 56 % 1020,7 hPa 0,0 l/m 13,6 km/h (3 Bft) N-NO 14 3 min 6,6 UV-I 857 W/m 11,3 C 18,1 C 20,9 km/h (4 Bft)
01.06.2023 13:30 20,6 C 30,6 C 56 % 1020,8 hPa 0,0 l/m 16,0 km/h (3 Bft) N 360 3 min 6,5 UV-I 864 W/m 11,5 C 17,8 C 20,9 km/h (4 Bft)
01.06.2023 13:33 20,2 C 30,0 C 53 % 1020,8 hPa 0,0 l/m 12,6 km/h (3 Bft) O-NO 67 3 min 6,4 UV-I 858 W/m 10,3 C 18,1 C 17,7 km/h (3 Bft)
01.06.2023 13:36 20,2 C 28,9 C 55 % 1020,7 hPa 0,0 l/m 13,4 km/h (3 Bft) N 355 3 min 6,5 UV-I 871 W/m 10,9 C 17,9 C 20,9 km/h (4 Bft)
01.06.2023 13:39 20,3 C 28,3 C 52 % 1020,7 hPa 0,0 l/m 14,2 km/h (3 Bft) N 360 3 min 6,6 UV-I 881 W/m 10,1 C 17,8 C 19,3 km/h (3 Bft)
01.06.2023 13:42 20,5 C 29,4 C 52 % 1020,7 hPa 0,0 l/m 17,1 km/h (3 Bft) N 355 3 min 6,6 UV-I 883 W/m 10,3 C 17,4 C 25,7 km/h (4 Bft)
01.06.2023 13:45 20,7 C 29,4 C 50 % 1020,8 hPa 0,0 l/m 15,0 km/h (3 Bft) N 360 3 min 6,6 UV-I 887 W/m 9,9 C 18,1 C 25,7 km/h (4 Bft)
01.06.2023 13:48 20,4 C 29,4 C 50 % 1020,7 hPa 0,0 l/m 18,4 km/h (3 Bft) N 355 3 min 6,4 UV-I 850 W/m 9,6 C 17,0 C 25,7 km/h (4 Bft)
01.06.2023 13:52 20,5 C 30,0 C 49 % 1020,7 hPa 0,0 l/m 15,4 km/h (3 Bft) N-NW 345 4 min 6,5 UV-I 873 W/m 9,4 C 17,8 C 20,9 km/h (4 Bft)
01.06.2023 13:54 20,6 C 30,6 C 47 % 1020,7 hPa 0,0 l/m 16,5 km/h (3 Bft) N-NW 343 2 min 6,7 UV-I 894 W/m 8,9 C 17,7 C 25,7 km/h (4 Bft)
01.06.2023 13:57 20,6 C 30,0 C 41 % 1020,7 hPa 0,0 l/m 19,7 km/h (3 Bft) N 349 3 min 6,6 UV-I 872 W/m 6,9 C 17,0 C 24,1 km/h (4 Bft)
01.06.2023 14:00 20,7 C 30,0 C 45 % 1020,7 hPa 0,0 l/m 12,0 km/h (2 Bft) N-NW 340 3 min 6,5 UV-I 886 W/m 8,3 C 18,8 C 20,9 km/h (4 Bft)
01.06.2023 14:03 20,9 C 30,6 C 48 % 1020,7 hPa 0,0 l/m 15,6 km/h (3 Bft) N-NW 331 3 min 6,6 UV-I 888 W/m 9,5 C 18,2 C 24,1 km/h (4 Bft)
01.06.2023 14:06 20,8 C 30,0 C 46 % 1020,6 hPa 0,0 l/m 15,0 km/h (3 Bft) N-NW 327 3 min 6,6 UV-I 883 W/m 8,8 C 18,2 C 22,5 km/h (4 Bft)
01.06.2023 14:09 20,7 C 31,1 C 46 % 1020,6 hPa 0,0 l/m 15,2 km/h (3 Bft) N-NW 348 3 min 6,5 UV-I 876 W/m 8,7 C 18,1 C 20,9 km/h (4 Bft)
01.06.2023 14:12 21,2 C 31,7 C 47 % 1020,6 hPa 0,0 l/m 10,0 km/h (2 Bft) N-NO 17 3 min 6,6 UV-I 891 W/m 9,4 C 20,0 C 19,3 km/h (3 Bft)
01.06.2023 14:15 21,3 C 31,1 C 37 % 1020,6 hPa 0,0 l/m 15,2 km/h (3 Bft) N-NO 31 3 min 6,6 UV-I 903 W/m 6,0 C 18,8 C 22,5 km/h (4 Bft)
01.06.2023 14:18 21,2 C 29,4 C 35 % 1020,5 hPa 0,0 l/m 17,9 km/h (3 Bft) N-NO 12 3 min 6,4 UV-I 894 W/m 5,1 C 18,1 C 25,7 km/h (4 Bft)
01.06.2023 14:21 21,1 C 28,9 C 38 % 1020,6 hPa 0,0 l/m 15,5 km/h (3 Bft) N-NO 26 3 min 6,5 UV-I 889 W/m 6,2 C 18,5 C 25,7 km/h (4 Bft)
01.06.2023 14:24 21,2 C 29,4 C 35 % 1020,5 hPa 0,0 l/m 13,9 km/h (3 Bft) N 11 3 min 6,5 UV-I 877 W/m 5,1 C 18,9 C 22,5 km/h (4 Bft)
01.06.2023 14:27 21,1 C 28,9 C 35 % 1020,4 hPa 0,0 l/m 15,7 km/h (3 Bft) NO 41 3 min 6,5 UV-I 886 W/m 5,0 C 18,4 C 22,5 km/h (4 Bft)
01.06.2023 14:30 21,1 C 28,9 C 36 % 1020,5 hPa 0,0 l/m 13,9 km/h (3 Bft) N-NO 23 3 min 6,4 UV-I 865 W/m 5,4 C 18,8 C 20,9 km/h (4 Bft)
01.06.2023 14:33 21,2 C 29,4 C 38 % 1020,5 hPa 0,0 l/m 14,8 km/h (3 Bft) O-NO 63 3 min 6,4 UV-I 874 W/m 6,3 C 18,7 C 22,5 km/h (4 Bft)
01.06.2023 14:36 21,3 C 30,0 C 39 % 1020,5 hPa 0,0 l/m 11,5 km/h (2 Bft) N-NO 32 3 min 6,3 UV-I 859 W/m 6,8 C 19,7 C 19,3 km/h (3 Bft)
01.06.2023 14:39 21,3 C 29,4 C 41 % 1020,5 hPa 0,0 l/m 16,1 km/h (3 Bft) N-NO 12 3 min 6,4 UV-I 876 W/m 7,5 C 18,6 C 22,5 km/h (4 Bft)
01.06.2023 14:42 21,3 C 29,4 C 37 % 1020,5 hPa 0,0 l/m 15,7 km/h (3 Bft) NO 50 3 min 6,4 UV-I 881 W/m 6,0 C 18,7 C 20,9 km/h (4 Bft)
01.06.2023 14:45 21,1 C 28,9 C 42 % 1020,5 hPa 0,0 l/m 14,2 km/h (3 Bft) NO 40 3 min 6,3 UV-I 881 W/m 7,7 C 18,8 C 20,9 km/h (4 Bft)
01.06.2023 14:48 21,6 C 30,0 C 47 % 1020,5 hPa 0,0 l/m 13,5 km/h (3 Bft) N 5 3 min 6,3 UV-I 869 W/m 9,8 C 19,5 C 20,9 km/h (4 Bft)
01.06.2023 14:51 21,6 C 30,0 C 47 % 1020,6 hPa 0,0 l/m 12,5 km/h (3 Bft) N 11 3 min 6,1 UV-I 826 W/m 9,8 C 19,7 C 19,3 km/h (3 Bft)
01.06.2023 14:54 21,2 C 30,6 C 42 % 1020,5 hPa 0,0 l/m 15,4 km/h (3 Bft) N-NW 346 3 min 6,2 UV-I 852 W/m 7,8 C 18,6 C 22,5 km/h (4 Bft)
01.06.2023 14:57 21,2 C 31,1 C 42 % 1020,6 hPa 0,0 l/m 15,4 km/h (3 Bft) N 355 3 min 6,2 UV-I 859 W/m 7,8 C 18,6 C 20,9 km/h (4 Bft)
01.06.2023 15:00 21,2 C 30,6 C 45 % 1020,5 hPa 0,0 l/m 16,4 km/h (3 Bft) N 5 3 min 6,1 UV-I 854 W/m 8,8 C 18,4 C 22,5 km/h (4 Bft)
01.06.2023 15:03 21,1 C 31,1 C 46 % 1020,5 hPa 0,0 l/m 13,9 km/h (3 Bft) N-NW 347 3 min 6,1 UV-I 853 W/m 9,0 C 18,8 C 20,9 km/h (4 Bft)
01.06.2023 15:06 21,0 C 30,6 C 45 % 1020,4 hPa 0,0 l/m 16,1 km/h (3 Bft) N-NW 331 3 min 6,0 UV-I 850 W/m 8,6 C 18,2 C 20,9 km/h (4 Bft)
01.06.2023 15:09 21,1 C 30,6 C 46 % 1020,5 hPa 0,0 l/m 15,0 km/h (3 Bft) N-NW 333 3 min 6,0 UV-I 843 W/m 9,0 C 18,6 C 20,9 km/h (4 Bft)
01.06.2023 15:12 21,3 C 30,6 C 47 % 1020,5 hPa 0,0 l/m 8,6 km/h (2 Bft) N-NW 331 3 min 5,9 UV-I 839 W/m 9,5 C 20,5 C 16,1 km/h (3 Bft)
01.06.2023 15:15 21,3 C 29,4 C 49 % 1020,5 hPa 0,0 l/m 12,7 km/h (3 Bft) N-NO 28 3 min 5,8 UV-I 826 W/m 10,1 C 19,4 C 24,1 km/h (4 Bft)
01.06.2023 15:18 21,3 C 29,4 C 44 % 1020,5 hPa 0,0 l/m 13,9 km/h (3 Bft) N-NW 336 3 min 5,8 UV-I 822 W/m 8,5 C 19,1 C 22,5 km/h (4 Bft)
01.06.2023 15:21 21,3 C 30,0 C 44 % 1020,6 hPa 0,0 l/m 15,9 km/h (3 Bft) N 360 3 min 5,8 UV-I 827 W/m 8,5 C 18,6 C 27,4 km/h (4 Bft)
01.06.2023 15:24 21,1 C 29,4 C 46 % 1020,5 hPa 0,0 l/m 12,5 km/h (3 Bft) NO 34 3 min 5,8 UV-I 831 W/m 9,0 C 19,2 C 24,1 km/h (4 Bft)
01.06.2023 15:27 21,2 C 29,4 C 47 % 1020,5 hPa 0,0 l/m 10,2 km/h (2 Bft) NO 42 3 min 5,7 UV-I 825 W/m 9,4 C 19,9 C 19,3 km/h (3 Bft)
01.06.2023 15:30 21,2 C 29,4 C 48 % 1020,5 hPa 0,0 l/m 11,9 km/h (2 Bft) N-NO 26 3 min 5,7 UV-I 804 W/m 9,7 C 19,4 C 20,9 km/h (4 Bft)
01.06.2023 15:33 21,4 C 30,0 C 48 % 1020,5 hPa 0,0 l/m 12,0 km/h (2 Bft) N-NO 15 3 min 5,6 UV-I 806 W/m 9,9 C 19,6 C 19,3 km/h (3 Bft)
01.06.2023 15:36 21,2 C 30,0 C 46 % 1020,5 hPa 0,0 l/m 10,9 km/h (2 Bft) NO 45 3 min 5,6 UV-I 807 W/m 9,1 C 19,7 C 17,7 km/h (3 Bft)
01.06.2023 15:39 21,1 C 30,0 C 47 % 1020,5 hPa 0,0 l/m 16,4 km/h (3 Bft) N-NW 348 3 min 5,5 UV-I 802 W/m 9,3 C 18,3 C 24,1 km/h (4 Bft)
01.06.2023 15:42 21,2 C 30,6 C 49 % 1020,5 hPa 0,0 l/m 13,6 km/h (3 Bft) N-NO 13 3 min 5,4 UV-I 793 W/m 10,1 C 19,0 C 19,3 km/h (3 Bft)
01.06.2023 15:45 21,4 C 31,7 C 50 % 1020,5 hPa 0,0 l/m 14,0 km/h (3 Bft) N 5 3 min 5,4 UV-I 790 W/m 10,5 C 19,2 C 22,5 km/h (4 Bft)
01.06.2023 15:48 21,2 C 31,1 C 48 % 1020,5 hPa 0,0 l/m 14,3 km/h (3 Bft) N-NO 18 3 min 5,3 UV-I 787 W/m 9,7 C 18,9 C 22,5 km/h (4 Bft)
01.06.2023 15:51 21,1 C 30,6 C 52 % 1020,5 hPa 0,0 l/m 11,5 km/h (2 Bft) N 360 3 min 5,3 UV-I 781 W/m 10,9 C 19,4 C 22,5 km/h (4 Bft)
01.06.2023 15:54 21,1 C 30,6 C 47 % 1020,4 hPa 0,0 l/m 17,2 km/h (3 Bft) N-NO 22 3 min 5,2 UV-I 774 W/m 9,3 C 18,1 C 25,7 km/h (4 Bft)
01.06.2023 15:57 20,9 C 30,6 C 42 % 1020,4 hPa 0,0 l/m 16,8 km/h (3 Bft) N-NW 347 3 min 5,1 UV-I 773 W/m 7,5 C 18,0 C 24,1 km/h (4 Bft)
01.06.2023 16:00 20,7 C 30,6 C 41 % 1020,5 hPa 0,0 l/m 16,6 km/h (3 Bft) NW 317 3 min 5,1 UV-I 771 W/m 7,0 C 17,8 C 25,7 km/h (4 Bft)
01.06.2023 16:03 20,6 C 30,0 C 42 % 1020,4 hPa 0,0 l/m 16,5 km/h (3 Bft) N-NW 328 3 min 5,0 UV-I 766 W/m 7,2 C 17,7 C 24,1 km/h (4 Bft)
01.06.2023 16:06 20,4 C 30,0 C 40 % 1020,5 hPa 0,0 l/m 17,8 km/h (3 Bft) N 355 3 min 5,0 UV-I 762 W/m 6,3 C 17,1 C 25,7 km/h (4 Bft)
01.06.2023 16:09 20,4 C 30,6 C 37 % 1020,4 hPa 0,0 l/m 15,4 km/h (3 Bft) N 355 3 min 4,9 UV-I 759 W/m 5,2 C 17,6 C 25,7 km/h (4 Bft)
01.06.2023 16:12 20,4 C 30,6 C 41 % 1020,4 hPa 0,0 l/m 16,9 km/h (3 Bft) N 5 3 min 4,9 UV-I 754 W/m 6,7 C 17,3 C 25,7 km/h (4 Bft)
01.06.2023 16:15 20,5 C 29,4 C 37 % 1020,3 hPa 0,0 l/m 18,7 km/h (3 Bft) NW 325 3 min 4,8 UV-I 748 W/m 5,3 C 17,1 C 25,7 km/h (4 Bft)
01.06.2023 16:18 20,3 C 28,3 C 43 % 1020,3 hPa 0,0 l/m 19,9 km/h (4 Bft) N 360 3 min 4,8 UV-I 741 W/m 7,3 C 16,6 C 25,7 km/h (4 Bft)
01.06.2023 16:21 20,6 C 28,9 C 47 % 1020,3 hPa 0,0 l/m 12,2 km/h (2 Bft) N 5 3 min 4,7 UV-I 734 W/m 8,9 C 18,7 C 19,3 km/h (3 Bft)
01.06.2023 16:24 20,5 C 29,4 C 39 % 1020,3 hPa 0,0 l/m 18,4 km/h (3 Bft) N 360 3 min 4,6 UV-I 729 W/m 6,1 C 17,1 C 27,4 km/h (4 Bft)
01.06.2023 16:27 20,2 C 29,4 C 38 % 1020,4 hPa 0,0 l/m 18,9 km/h (3 Bft) NW 313 3 min 4,5 UV-I 723 W/m 5,4 C 16,7 C 29,0 km/h (5 Bft)
01.06.2023 16:30 20,3 C 28,3 C 43 % 1020,3 hPa 0,0 l/m 14,2 km/h (3 Bft) W-NW 297 3 min 4,5 UV-I 717 W/m 7,3 C 17,8 C 22,5 km/h (4 Bft)
01.06.2023 16:33 20,3 C 28,9 C 37 % 1020,3 hPa 0,0 l/m 17,6 km/h (3 Bft) N-NW 346 3 min 4,4 UV-I 712 W/m 5,1 C 17,1 C 24,1 km/h (4 Bft)
01.06.2023 16:36 20,2 C 29,4 C 39 % 1020,2 hPa 0,0 l/m 13,8 km/h (3 Bft) N-NW 339 3 min 4,3 UV-I 704 W/m 5,8 C 17,8 C 22,5 km/h (4 Bft)
01.06.2023 16:39 20,2 C 29,4 C 40 % 1020,3 hPa 0,0 l/m 18,0 km/h (3 Bft) N-NW 343 3 min 4,3 UV-I 696 W/m 6,2 C 16,8 C 27,4 km/h (4 Bft)
01.06.2023 16:42 20,2 C 29,4 C 44 % 1020,3 hPa 0,0 l/m 16,4 km/h (3 Bft) NW 319 3 min 4,2 UV-I 690 W/m 7,6 C 17,2 C 22,5 km/h (4 Bft)
01.06.2023 16:45 20,4 C 29,4 C 45 % 1020,2 hPa 0,0 l/m 10,5 km/h (2 Bft) N 5 3 min 4,1 UV-I 682 W/m 8,1 C 18,9 C 17,7 km/h (3 Bft)
01.06.2023 16:48 20,7 C 29,4 C 45 % 1020,3 hPa 0,0 l/m 15,4 km/h (3 Bft) N 9 3 min 4,1 UV-I 674 W/m 8,3 C 18,0 C 24,1 km/h (4 Bft)
01.06.2023 16:51 20,6 C 30,0 C 46 % 1020,2 hPa 0,0 l/m 14,3 km/h (3 Bft) N 10 3 min 4,0 UV-I 668 W/m 8,6 C 18,1 C 22,5 km/h (4 Bft)
01.06.2023 16:54 20,5 C 30,0 C 48 % 1020,1 hPa 0,0 l/m 15,5 km/h (3 Bft) N-NW 343 3 min 4,0 UV-I 661 W/m 9,1 C 17,7 C 25,7 km/h (4 Bft)
01.06.2023 16:57 20,4 C 29,4 C 50 % 1020,1 hPa 0,0 l/m 13,7 km/h (3 Bft) N-NO 19 3 min 3,9 UV-I 653 W/m 9,6 C 18,0 C 20,9 km/h (4 Bft)
01.06.2023 17:00 20,3 C 28,9 C 47 % 1020,1 hPa 0,0 l/m 13,9 km/h (3 Bft) N 5 3 min 3,8 UV-I 647 W/m 8,6 C 17,9 C 20,9 km/h (4 Bft)
01.06.2023 17:03 20,3 C 28,9 C 49 % 1020,0 hPa 0,0 l/m 15,4 km/h (3 Bft) N 5 3 min 3,8 UV-I 639 W/m 9,2 C 17,5 C 22,5 km/h (4 Bft)
01.06.2023 17:06 20,3 C 28,9 C 51 % 1020,0 hPa 0,0 l/m 12,6 km/h (3 Bft) N-NO 19 3 min 3,7 UV-I 632 W/m 9,8 C 18,2 C 22,5 km/h (4 Bft)
01.06.2023 17:09 20,3 C 28,9 C 49 % 1020,1 hPa 0,0 l/m 15,2 km/h (3 Bft) N-NO 13 3 min 3,6 UV-I 624 W/m 9,2 C 17,6 C 24,1 km/h (4 Bft)
01.06.2023 17:12 20,3 C 28,3 C 48 % 1020,1 hPa 0,0 l/m 12,1 km/h (2 Bft) NW 309 3 min 3,6 UV-I 622 W/m 8,9 C 18,3 C 19,3 km/h (3 Bft)
01.06.2023 17:15 20,3 C 27,8 C 44 % 1020,1 hPa 0,0 l/m 16,6 km/h (3 Bft) N-NO 13 3 min 3,5 UV-I 616 W/m 7,6 C 17,3 C 24,1 km/h (4 Bft)
01.06.2023 17:18 20,1 C 28,3 C 43 % 1020,1 hPa 0,0 l/m 14,2 km/h (3 Bft) N 10 3 min 3,4 UV-I 608 W/m 7,1 C 17,6 C 22,5 km/h (4 Bft)
01.06.2023 17:21 20,1 C 28,3 C 46 % 1019,9 hPa 0,0 l/m 12,1 km/h (2 Bft) N-NW 338 3 min 3,4 UV-I 602 W/m 8,1 C 18,1 C 19,3 km/h (3 Bft)
01.06.2023 17:24 20,2 C 27,8 C 47 % 1020,0 hPa 0,0 l/m 11,1 km/h (2 Bft) N 351 3 min 3,3 UV-I 592 W/m 8,5 C 18,5 C 17,7 km/h (3 Bft)
01.06.2023 17:27 20,3 C 27,8 C 49 % 1020,0 hPa 0,0 l/m 9,3 km/h (2 Bft) N 360 3 min 3,3 UV-I 584 W/m 9,2 C 19,2 C 17,7 km/h (3 Bft)
01.06.2023 17:30 20,3 C 27,8 C 50 % 1020,0 hPa 0,0 l/m 10,4 km/h (2 Bft) N 9 3 min 3,2 UV-I 577 W/m 9,5 C 18,8 C 17,7 km/h (3 Bft)
01.06.2023 17:33 20,2 C 27,2 C 47 % 1019,9 hPa 0,0 l/m 14,9 km/h (3 Bft) N-NW 340 3 min 3,1 UV-I 569 W/m 8,5 C 17,5 C 22,5 km/h (4 Bft)
01.06.2023 17:36 19,9 C 27,2 C 50 % 1019,9 hPa 0,0 l/m 11,4 km/h (2 Bft) N-NO 13 3 min 3,1 UV-I 561 W/m 9,2 C 18,1 C 16,1 km/h (3 Bft)
01.06.2023 17:39 20,1 C 26,7 C 52 % 1019,9 hPa 0,0 l/m 11,0 km/h (2 Bft) N 355 3 min 3,0 UV-I 553 W/m 9,9 C 18,4 C 20,9 km/h (4 Bft)
01.06.2023 17:42 19,9 C 26,7 C 48 % 1019,9 hPa 0,0 l/m 16,6 km/h (3 Bft) N-NW 336 3 min 2,9 UV-I 547 W/m 8,6 C 16,8 C 29,0 km/h (5 Bft)
01.06.2023 17:45 19,8 C 25,6 C 48 % 1020,0 hPa 0,0 l/m 13,3 km/h (3 Bft) NW 326 3 min 2,9 UV-I 538 W/m 8,5 C 17,4 C 20,9 km/h (4 Bft)
01.06.2023 17:48 19,8 C 25,6 C 50 % 1019,9 hPa 0,0 l/m 12,5 km/h (3 Bft) N 360 3 min 2,8 UV-I 528 W/m 9,1 C 17,7 C 22,5 km/h (4 Bft)
01.06.2023 17:51 19,6 C 25,6 C 48 % 1019,9 hPa 0,0 l/m 15,2 km/h (3 Bft) N 5 3 min 2,7 UV-I 522 W/m 8,3 C 16,7 C 24,1 km/h (4 Bft)
01.06.2023 17:54 19,7 C 26,1 C 52 % 1019,9 hPa 0,0 l/m 13,9 km/h (3 Bft) N 355 3 min 2,7 UV-I 515 W/m 9,6 C 17,2 C 19,3 km/h (3 Bft)
01.06.2023 17:57 19,5 C 26,1 C 51 % 1019,9 hPa 0,0 l/m 13,3 km/h (3 Bft) N-NO 32 3 min 2,6 UV-I 506 W/m 9,1 C 17,1 C 22,5 km/h (4 Bft)
01.06.2023 18:00 19,6 C 26,1 C 53 % 1019,9 hPa 0,0 l/m 14,5 km/h (3 Bft) N 5 3 min 2,5 UV-I 499 W/m 9,8 C 16,9 C 22,5 km/h (4 Bft)
01.06.2023 18:03 19,6 C 26,1 C 51 % 1019,8 hPa 0,0 l/m 13,4 km/h (3 Bft) N 355 3 min 2,5 UV-I 491 W/m 9,2 C 17,2 C 22,5 km/h (4 Bft)
01.06.2023 18:06 19,4 C 25,6 C 50 % 1019,8 hPa 0,0 l/m 15,8 km/h (3 Bft) N 355 3 min 2,4 UV-I 482 W/m 8,7 C 16,3 C 25,7 km/h (4 Bft)
01.06.2023 18:09 19,2 C 24,4 C 49 % 1019,8 hPa 0,0 l/m 17,4 km/h (3 Bft) N-NW 341 3 min 2,4 UV-I 472 W/m 8,2 C 15,7 C 25,7 km/h (4 Bft)
01.06.2023 18:12 19,1 C 23,9 C 51 % 1019,8 hPa 0,0 l/m 14,3 km/h (3 Bft) N-NW 342 3 min 2,3 UV-I 464 W/m 8,7 C 16,3 C 24,1 km/h (4 Bft)
01.06.2023 18:15 19,2 C 23,9 C 51 % 1019,7 hPa 0,0 l/m 16,0 km/h (3 Bft) N-NO 17 3 min 2,2 UV-I 457 W/m 8,8 C 16,0 C 25,7 km/h (4 Bft)
01.06.2023 18:18 19,1 C 23,9 C 53 % 1019,7 hPa 0,0 l/m 13,0 km/h (3 Bft) NO 40 3 min 2,2 UV-I 450 W/m 9,3 C 16,7 C 19,3 km/h (3 Bft)
01.06.2023 18:21 19,0 C 23,9 C 53 % 1019,8 hPa 0,0 l/m 15,2 km/h (3 Bft) N 360 3 min 2,1 UV-I 442 W/m 9,2 C 16,0 C 22,5 km/h (4 Bft)
01.06.2023 18:24 19,0 C 23,9 C 52 % 1019,7 hPa 0,0 l/m 16,1 km/h (3 Bft) N 350 3 min 2,1 UV-I 433 W/m 8,9 C 15,8 C 22,5 km/h (4 Bft)
01.06.2023 18:27 18,8 C 22,8 C 54 % 1019,7 hPa 0,0 l/m 15,6 km/h (3 Bft) N 360 3 min 2,0 UV-I 425 W/m 9,3 C 15,6 C 25,7 km/h (4 Bft)
01.06.2023 18:30 18,7 C 21,1 C 52 % 1019,6 hPa 0,0 l/m 17,7 km/h (3 Bft) N-NO 30 3 min 1,9 UV-I 415 W/m 8,6 C 15,0 C 27,4 km/h (4 Bft)
01.06.2023 18:33 18,6 C 20,6 C 52 % 1019,6 hPa 0,0 l/m 16,2 km/h (3 Bft) N-NW 344 3 min 1,9 UV-I 409 W/m 8,5 C 15,2 C 25,7 km/h (4 Bft)
01.06.2023 18:36 18,6 C 20,0 C 54 % 1019,6 hPa 0,0 l/m 15,0 km/h (3 Bft) N-NW 342 3 min 1,8 UV-I 401 W/m 9,1 C 15,6 C 22,5 km/h (4 Bft)
01.06.2023 18:39 18,5 C 19,4 C 54 % 1019,6 hPa 0,0 l/m 16,1 km/h (3 Bft) N-NO 21 3 min 1,8 UV-I 393 W/m 9,0 C 15,1 C 22,5 km/h (4 Bft)
01.06.2023 18:42 18,4 C 19,4 C 56 % 1019,6 hPa 0,0 l/m 17,2 km/h (3 Bft) N-NW 343 3 min 1,7 UV-I 383 W/m 9,5 C 14,8 C 24,1 km/h (4 Bft)
01.06.2023 18:45 18,4 C 18,9 C 57 % 1019,5 hPa 0,0 l/m 15,4 km/h (3 Bft) N 5 3 min 1,7 UV-I 375 W/m 9,7 C 15,2 C 24,1 km/h (4 Bft)
01.06.2023 18:48 18,4 C 18,9 C 56 % 1019,5 hPa 0,0 l/m 15,8 km/h (3 Bft) N 355 3 min 1,6 UV-I 367 W/m 9,5 C 15,1 C 24,1 km/h (4 Bft)
01.06.2023 18:51 18,2 C 18,9 C 55 % 1019,6 hPa 0,0 l/m 18,2 km/h (3 Bft) N 355 3 min 1,5 UV-I 359 W/m 9,0 C 14,3 C 25,7 km/h (4 Bft)
01.06.2023 18:54 18,1 C 18,3 C 57 % 1019,6 hPa 0,0 l/m 17,2 km/h (3 Bft) N 11 3 min 1,5 UV-I 350 W/m 9,4 C 14,4 C 22,5 km/h (4 Bft)
01.06.2023 18:57 18,1 C 18,9 C 57 % 1019,5 hPa 0,0 l/m 12,8 km/h (3 Bft) N-NO 15 3 min 1,4 UV-I 343 W/m 9,4 C 15,6 C 20,9 km/h (4 Bft)
01.06.2023 19:00 18,0 C 18,9 C 58 % 1019,4 hPa 0,0 l/m 16,3 km/h (3 Bft) N 5 3 min 1,4 UV-I 337 W/m 9,6 C 14,5 C 24,1 km/h (4 Bft)
01.06.2023 19:03 17,9 C 18,3 C 57 % 1019,5 hPa 0,0 l/m 15,2 km/h (3 Bft) N-NW 348 3 min 1,3 UV-I 330 W/m 9,3 C 14,7 C 25,7 km/h (4 Bft)
01.06.2023 19:06 17,8 C 18,3 C 57 % 1019,4 hPa 0,0 l/m 18,1 km/h (3 Bft) N-NW 344 3 min 1,3 UV-I 327 W/m 9,2 C 13,8 C 24,1 km/h (4 Bft)
01.06.2023 19:09 17,9 C 18,3 C 60 % 1019,4 hPa 0,0 l/m 12,6 km/h (3 Bft) N 9 3 min 1,3 UV-I 324 W/m 10,0 C 15,4 C 19,3 km/h (3 Bft)
01.06.2023 19:12 17,9 C 18,3 C 59 % 1019,4 hPa 0,0 l/m 11,8 km/h (2 Bft) N-NW 338 3 min 1,3 UV-I 324 W/m 9,8 C 15,7 C 19,3 km/h (3 Bft)
01.06.2023 19:15 17,9 C 18,3 C 57 % 1019,4 hPa 0,0 l/m 16,2 km/h (3 Bft) N-NO 14 3 min 1,2 UV-I 326 W/m 9,3 C 14,4 C 24,1 km/h (4 Bft)
01.06.2023 19:18 17,8 C 18,3 C 59 % 1019,4 hPa 0,0 l/m 12,8 km/h (3 Bft) N 11 3 min 1,2 UV-I 324 W/m 9,7 C 15,2 C 22,5 km/h (4 Bft)
01.06.2023 19:21 17,8 C 18,3 C 58 % 1019,4 hPa 0,0 l/m 12,1 km/h (2 Bft) N 351 3 min 1,2 UV-I 322 W/m 9,4 C 15,5 C 19,3 km/h (3 Bft)
01.06.2023 19:24 17,7 C 17,8 C 57 % 1019,4 hPa 0,0 l/m 14,5 km/h (3 Bft) N 5 3 min 1,1 UV-I 316 W/m 9,1 C 14,6 C 24,1 km/h (4 Bft)
01.06.2023 19:27 17,6 C 17,8 C 57 % 1019,4 hPa 0,0 l/m 15,8 km/h (3 Bft) N-NW 346 3 min 1,1 UV-I 308 W/m 9,0 C 14,1 C 22,5 km/h (4 Bft)
01.06.2023 19:30 17,5 C 17,8 C 57 % 1019,4 hPa 0,0 l/m 14,4 km/h (3 Bft) N-NW 342 3 min 1,0 UV-I 293 W/m 8,9 C 14,4 C 25,7 km/h (4 Bft)
01.06.2023 19:33 17,4 C 17,8 C 59 % 1019,3 hPa 0,0 l/m 9,1 km/h (2 Bft) N 5 3 min 1,0 UV-I 288 W/m 9,3 C 16,1 C 17,7 km/h (3 Bft)
01.06.2023 19:36 17,4 C 17,2 C 57 % 1019,4 hPa 0,0 l/m 12,8 km/h (3 Bft) N-NW 335 3 min 0,9 UV-I 278 W/m 8,8 C 14,8 C 19,3 km/h (3 Bft)
01.06.2023 19:39 17,4 C 17,2 C 57 % 1019,4 hPa 0,0 l/m 14,4 km/h (3 Bft) N-NW 329 3 min 0,9 UV-I 267 W/m 8,8 C 14,3 C 20,9 km/h (4 Bft)
01.06.2023 19:42 17,3 C 16,7 C 55 % 1019,4 hPa 0,0 l/m 17,9 km/h (3 Bft) N-NW 348 3 min 0,8 UV-I 235 W/m 8,2 C 13,2 C 25,7 km/h (4 Bft)
01.06.2023 19:45 17,2 C 16,7 C 56 % 1019,5 hPa 0,0 l/m 14,9 km/h (3 Bft) N-NW 346 3 min 0,6 UV-I 147 W/m 8,3 C 13,9 C 20,9 km/h (4 Bft)
01.06.2023 19:48 16,9 C 16,1 C 58 % 1019,4 hPa 0,0 l/m 14,5 km/h (3 Bft) N-NO 17 0 min 0,6 UV-I 131 W/m 8,6 C 13,6 C 22,5 km/h (4 Bft)
01.06.2023 19:51 16,8 C 16,1 C 56 % 1019,4 hPa 0,0 l/m 17,0 km/h (3 Bft) N-NW 342 3 min 0,6 UV-I 157 W/m 8,0 C 12,8 C 25,7 km/h (4 Bft)
01.06.2023 19:54 16,6 C 16,1 C 57 % 1019,4 hPa 0,0 l/m 14,7 km/h (3 Bft) N 355 3 min 0,5 UV-I 128 W/m 8,0 C 13,2 C 24,1 km/h (4 Bft)
01.06.2023 19:57 16,5 C 15,6 C 57 % 1019,4 hPa 0,0 l/m 13,1 km/h (3 Bft) N-NO 25 0 min 0,5 UV-I 104 W/m 8,0 C 13,6 C 19,3 km/h (3 Bft)
01.06.2023 20:00 16,4 C 15,6 C 58 % 1019,4 hPa 0,0 l/m 12,4 km/h (3 Bft) N 355 3 min 0,4 UV-I 119 W/m 8,1 C 13,7 C 22,5 km/h (4 Bft)
01.06.2023 20:03 16,3 C 15,6 C 58 % 1019,4 hPa 0,0 l/m 11,0 km/h (2 Bft) N-NW 346 0 min 0,0 UV-I 91 W/m 8,0 C 14,1 C 17,7 km/h (3 Bft)
01.06.2023 20:06 16,1 C 15,6 C 60 % 1019,5 hPa 0,0 l/m 14,8 km/h (3 Bft) N-NW 347 0 min 0,0 UV-I 80 W/m 8,3 C 12,6 C 22,5 km/h (4 Bft)
01.06.2023 20:09 16,1 C 15,0 C 60 % 1019,5 hPa 0,0 l/m 13,9 km/h (3 Bft) N-NW 344 0 min 0,0 UV-I 74 W/m 8,3 C 12,9 C 20,9 km/h (4 Bft)
01.06.2023 20:12 15,9 C 15,0 C 61 % 1019,4 hPa 0,0 l/m 7,9 km/h (2 Bft) N-NW 339 0 min 0,0 UV-I 69 W/m 8,4 C 15,1 C 14,5 km/h (3 Bft)
01.06.2023 20:15 15,9 C 15,0 C 61 % 1019,5 hPa 0,0 l/m 11,7 km/h (2 Bft) N 355 0 min 0,0 UV-I 66 W/m 8,4 C 13,4 C 19,3 km/h (3 Bft)
01.06.2023 20:18 15,8 C 15,0 C 62 % 1019,4 hPa 0,0 l/m 8,5 km/h (2 Bft) N 10 0 min 0,0 UV-I 87 W/m 8,5 C 14,7 C 16,1 km/h (3 Bft)
01.06.2023 20:21 15,7 C 14,4 C 62 % 1019,5 hPa 0,0 l/m 9,8 km/h (2 Bft) N 9 0 min 0,0 UV-I 57 W/m 8,4 C 14,0 C 16,1 km/h (3 Bft)
01.06.2023 20:24 15,6 C 14,4 C 64 % 1019,5 hPa 0,0 l/m 8,1 km/h (2 Bft) N-NO 16 0 min 0,0 UV-I 53 W/m 8,8 C 14,7 C 14,5 km/h (3 Bft)
01.06.2023 20:27 15,5 C 14,4 C 63 % 1019,4 hPa 0,0 l/m 14,9 km/h (3 Bft) N-NW 348 0 min 0,0 UV-I 50 W/m 8,5 C 11,8 C 24,1 km/h (4 Bft)
01.06.2023 20:30 15,5 C 14,4 C 64 % 1019,5 hPa 0,0 l/m 17,9 km/h (3 Bft) N-NW 348 0 min 0,0 UV-I 44 W/m 8,7 C 10,9 C 30,6 km/h (5 Bft)
01.06.2023 20:33 15,4 C 13,9 C 64 % 1019,4 hPa 0,0 l/m 18,0 km/h (3 Bft) N 350 0 min 0,0 UV-I 42 W/m 8,6 C 10,8 C 24,1 km/h (4 Bft)
01.06.2023 20:36 15,4 C 13,9 C 65 % 1019,3 hPa 0,0 l/m 16,9 km/h (3 Bft) N-NW 344 0 min 0,0 UV-I 41 W/m 8,9 C 11,1 C 22,5 km/h (4 Bft)
01.06.2023 20:39 15,2 C 13,9 C 66 % 1019,5 hPa 0,0 l/m 13,9 km/h (3 Bft) N 360 0 min 0,0 UV-I 40 W/m 8,9 C 11,8 C 20,9 km/h (4 Bft)
01.06.2023 20:42 15,1 C 13,9 C 66 % 1019,3 hPa 0,0 l/m 15,4 km/h (3 Bft) N 355 0 min 0,0 UV-I 41 W/m 8,8 C 11,2 C 22,5 km/h (4 Bft)
01.06.2023 20:45 14,9 C 13,3 C 67 % 1019,2 hPa 0,0 l/m 13,0 km/h (3 Bft) N-NW 344 0 min 0,0 UV-I 42 W/m 8,8 C 11,8 C 20,9 km/h (4 Bft)
01.06.2023 20:48 14,9 C 13,3 C 67 % 1019,3 hPa 0,0 l/m 13,6 km/h (3 Bft) N-NW 346 0 min 0,0 UV-I 42 W/m 8,8 C 11,6 C 19,3 km/h (3 Bft)
01.06.2023 20:51 14,9 C 13,3 C 68 % 1019,3 hPa 0,0 l/m 17,0 km/h (3 Bft) N 355 0 min 0,0 UV-I 42 W/m 9,0 C 10,4 C 22,5 km/h (4 Bft)
01.06.2023 20:54 14,8 C 13,3 C 68 % 1019,3 hPa 0,0 l/m 11,2 km/h (2 Bft) N 360 0 min 0,0 UV-I 42 W/m 9,0 C 12,4 C 17,7 km/h (3 Bft)
01.06.2023 20:57 14,8 C 13,3 C 69 % 1019,3 hPa 0,0 l/m 11,5 km/h (2 Bft) N 5 0 min 0,0 UV-I 41 W/m 9,2 C 12,2 C 19,3 km/h (3 Bft)
01.06.2023 21:00 14,7 C 13,3 C 68 % 1019,3 hPa 0,0 l/m 16,0 km/h (3 Bft) N-NW 346 3 min 0,0 UV-I 40 W/m 8,9 C 10,5 C 24,1 km/h (4 Bft)
01.06.2023 21:03 14,7 C 13,3 C 68 % 1019,4 hPa 0,0 l/m 17,9 km/h (3 Bft) N 9 3 min 0,0 UV-I 39 W/m 8,9 C 9,9 C 22,5 km/h (4 Bft)
01.06.2023 21:06 14,7 C 13,3 C 68 % 1019,3 hPa 0,0 l/m 13,9 km/h (3 Bft) N-NW 346 3 min 0,0 UV-I 36 W/m 8,9 C 11,2 C 19,3 km/h (3 Bft)
01.06.2023 21:09 14,6 C 13,3 C 68 % 1019,4 hPa 0,0 l/m 13,2 km/h (3 Bft) N 360 3 min 0,0 UV-I 33 W/m 8,8 C 11,3 C 19,3 km/h (3 Bft)
01.06.2023 21:12 14,6 C 13,3 C 68 % 1019,3 hPa 0,0 l/m 15,6 km/h (3 Bft) N 360 3 min 0,0 UV-I 30 W/m 8,8 C 10,5 C 22,5 km/h (4 Bft)
01.06.2023 21:15 14,4 C 12,8 C 69 % 1019,4 hPa 0,0 l/m 12,6 km/h (3 Bft) N 355 3 min 0,0 UV-I 26 W/m 8,8 C 11,3 C 19,3 km/h (3 Bft)
01.06.2023 21:18 14,4 C 12,8 C 69 % 1019,3 hPa 0,0 l/m 13,9 km/h (3 Bft) N-NW 329 0 min 0,0 UV-I 22 W/m 8,8 C 10,9 C 19,3 km/h (3 Bft)
01.06.2023 21:21 14,3 C 12,8 C 70 % 1019,2 hPa 0,0 l/m 9,9 km/h (2 Bft) N-NW 344 0 min 0,0 UV-I 17 W/m 8,9 C 12,4 C 17,7 km/h (3 Bft)
01.06.2023 21:24 14,2 C 12,8 C 70 % 1019,3 hPa 0,0 l/m 13,0 km/h (3 Bft) N-NW 341 0 min 0,0 UV-I 14 W/m 8,8 C 11,0 C 17,7 km/h (3 Bft)
01.06.2023 21:27 14,2 C 12,8 C 70 % 1019,4 hPa 0,0 l/m 13,9 km/h (3 Bft) N-NW 346 0 min 0,0 UV-I 11 W/m 8,8 C 10,6 C 17,7 km/h (3 Bft)
01.06.2023 21:30 14,1 C 12,2 C 71 % 1019,3 hPa 0,0 l/m 11,2 km/h (2 Bft) N 350 0 min 0,0 UV-I 8 W/m 8,9 C 11,6 C 16,1 km/h (3 Bft)
01.06.2023 21:33 13,9 C 11,7 C 71 % 1019,4 hPa 0,0 l/m 11,0 km/h (2 Bft) N-NW 348 0 min 0,0 UV-I 7 W/m 8,7 C 11,4 C 14,5 km/h (3 Bft)
01.06.2023 21:36 13,6 C 11,7 C 72 % 1019,3 hPa 0,0 l/m 9,5 km/h (2 Bft) N 350 0 min 0,0 UV-I 5 W/m 8,6 C 11,8 C 14,5 km/h (3 Bft)
01.06.2023 21:39 13,5 C 11,1 C 73 % 1019,3 hPa 0,0 l/m 9,5 km/h (2 Bft) N 349 0 min 0,0 UV-I 1 W/m 8,8 C 11,7 C 14,5 km/h (3 Bft)
01.06.2023 21:42 13,3 C 11,1 C 73 % 1019,4 hPa 0,0 l/m 8,1 km/h (2 Bft) N-NW 346 0 min 0,0 UV-I 0 W/m 8,6 C 12,3 C 14,5 km/h (3 Bft)
01.06.2023 21:45 13,1 C 10,6 C 74 % 1019,3 hPa 0,0 l/m 6,9 km/h (2 Bft) N 355 0 min 0,0 UV-I 0 W/m 8,6 C 12,8 C 12,9 km/h (3 Bft)
01.06.2023 21:48 12,9 C 10,6 C 74 % 1019,2 hPa 0,0 l/m 7,6 km/h (2 Bft) N 5 0 min 0,0 UV-I 0 W/m 8,4 C 12,1 C 14,5 km/h (3 Bft)
01.06.2023 21:51 12,9 C 10,0 C 75 % 1019,3 hPa 0,0 l/m 7,2 km/h (2 Bft) N 5 0 min 0,0 UV-I 0 W/m 8,6 C 12,4 C 12,9 km/h (3 Bft)
01.06.2023 21:54 12,8 C 10,0 C 75 % 1019,4 hPa 0,0 l/m 8,0 km/h (2 Bft) N 360 0 min 0,0 UV-I 0 W/m 8,5 C 11,8 C 16,1 km/h (3 Bft)
01.06.2023 21:57 12,8 C 10,0 C 75 % 1019,4 hPa 0,0 l/m 7,9 km/h (2 Bft) N-NO 24 0 min 0,0 UV-I 0 W/m 8,5 C 11,9 C 14,5 km/h (3 Bft)
01.06.2023 22:00 12,6 C 10,0 C 76 % 1019,3 hPa 0,0 l/m 6,9 km/h (2 Bft) N-NO 23 0 min 0,0 UV-I 0 W/m 8,5 C 12,3 C 14,5 km/h (3 Bft)
01.06.2023 22:03 12,5 C 9,4 C 76 % 1019,4 hPa 0,0 l/m 7,9 km/h (2 Bft) N 5 0 min 0,0 UV-I 0 W/m 8,4 C 11,5 C 14,5 km/h (3 Bft)
01.06.2023 22:06 12,4 C 9,4 C 76 % 1019,5 hPa 0,0 l/m 7,4 km/h (2 Bft) N 11 0 min 0,0 UV-I 0 W/m 8,3 C 11,7 C 14,5 km/h (3 Bft)
01.06.2023 22:09 12,4 C 9,4 C 76 % 1019,4 hPa 0,0 l/m 8,5 km/h (2 Bft) N-NW 348 0 min 0,0 UV-I 0 W/m 8,3 C 11,1 C 14,5 km/h (3 Bft)
01.06.2023 22:12 12,4 C 9,4 C 76 % 1019,5 hPa 0,0 l/m 8,6 km/h (2 Bft) N 355 0 min 0,0 UV-I 0 W/m 8,3 C 11,0 C 14,5 km/h (3 Bft)
01.06.2023 22:15 12,3 C 9,4 C 77 % 1019,4 hPa 0,0 l/m 7,5 km/h (2 Bft) N 350 0 min 0,0 UV-I 0 W/m 8,4 C 11,6 C 12,9 km/h (3 Bft)
01.06.2023 22:18 12,2 C 9,4 C 77 % 1019,4 hPa 0,0 l/m 8,3 km/h (2 Bft) N-NO 15 0 min 0,0 UV-I 0 W/m 8,3 C 11,0 C 12,9 km/h (3 Bft)
01.06.2023 22:21 12,1 C 9,4 C 77 % 1019,4 hPa 0,0 l/m 5,4 km/h (1 Bft) N-NO 14 0 min 0,0 UV-I 0 W/m 8,2 C 12,1 C 8,0 km/h (2 Bft)
01.06.2023 22:24 12,1 C 8,9 C 77 % 1019,5 hPa 0,0 l/m 8,7 km/h (2 Bft) N-NW 341 0 min 0,0 UV-I 0 W/m 8,2 C 10,6 C 17,7 km/h (3 Bft)
01.06.2023 22:27 12,1 C 9,4 C 77 % 1019,5 hPa 0,0 l/m 11,5 km/h (2 Bft) N 10 0 min 0,0 UV-I 0 W/m 8,2 C 9,2 C 16,1 km/h (3 Bft)
01.06.2023 22:30 12,1 C 9,4 C 77 % 1019,5 hPa 0,0 l/m 6,3 km/h (2 Bft) N 11 0 min 0,0 UV-I 0 W/m 8,2 C 12,1 C 11,3 km/h (2 Bft)
01.06.2023 22:33 11,9 C 8,9 C 77 % 1019,5 hPa 0,0 l/m 8,5 km/h (2 Bft) N 350 0 min 0,0 UV-I 0 W/m 8,0 C 10,5 C 14,5 km/h (3 Bft)
01.06.2023 22:36 11,8 C 8,9 C 78 % 1019,5 hPa 0,0 l/m 6,7 km/h (2 Bft) N 10 0 min 0,0 UV-I 0 W/m 8,1 C 11,6 C 11,3 km/h (2 Bft)
01.06.2023 22:39 11,7 C 8,9 C 78 % 1019,5 hPa 0,0 l/m 8,1 km/h (2 Bft) N 5 0 min 0,0 UV-I 0 W/m 8,0 C 10,6 C 16,1 km/h (3 Bft)
01.06.2023 22:42 11,6 C 8,9 C 78 % 1019,5 hPa 0,0 l/m 7,5 km/h (2 Bft) N-NO 14 0 min 0,0 UV-I 0 W/m 7,9 C 10,9 C 12,9 km/h (3 Bft)
01.06.2023 22:45 11,4 C 8,3 C 78 % 1019,5 hPa 0,0 l/m 9,8 km/h (2 Bft) N-NO 17 0 min 0,0 UV-I 0 W/m 7,7 C 9,3 C 16,1 km/h (3 Bft)
01.06.2023 22:48 11,5 C 8,9 C 78 % 1019,6 hPa 0,0 l/m 6,9 km/h (2 Bft) N 11 0 min 0,0 UV-I 0 W/m 7,8 C 11,2 C 12,9 km/h (3 Bft)
01.06.2023 22:51 11,4 C 8,9 C 79 % 1019,6 hPa 0,0 l/m 9,4 km/h (2 Bft) N 5 0 min 0,0 UV-I 0 W/m 7,9 C 9,5 C 14,5 km/h (3 Bft)
01.06.2023 22:54 11,4 C 8,9 C 79 % 1019,6 hPa 0,0 l/m 7,5 km/h (2 Bft) N 9 0 min 0,0 UV-I 0 W/m 7,9 C 10,7 C 12,9 km/h (3 Bft)
01.06.2023 22:57 11,3 C 8,9 C 79 % 1019,6 hPa 0,0 l/m 7,5 km/h (2 Bft) N 5 0 min 0,0 UV-I 0 W/m 7,8 C 10,5 C 14,5 km/h (3 Bft)
01.06.2023 23:00 11,3 C 8,9 C 80 % 1019,6 hPa 0,0 l/m 7,9 km/h (2 Bft) N-NO 21 0 min 0,0 UV-I 0 W/m 8,0 C 10,3 C 14,5 km/h (3 Bft)
01.06.2023 23:03 11,2 C 8,9 C 81 % 1019,6 hPa 0,0 l/m 7,6 km/h (2 Bft) N 360 0 min 0,0 UV-I 0 W/m 8,1 C 10,4 C 12,9 km/h (3 Bft)
01.06.2023 23:06 11,2 C 8,9 C 81 % 1019,7 hPa 0,0 l/m 10,5 km/h (2 Bft) N 10 0 min 0,0 UV-I 0 W/m 8,1 C 8,7 C 17,7 km/h (3 Bft)
01.06.2023 23:09 11,2 C 8,9 C 82 % 1019,7 hPa 0,0 l/m 9,2 km/h (2 Bft) N 5 0 min 0,0 UV-I 0 W/m 8,2 C 9,4 C 16,1 km/h (3 Bft)
01.06.2023 23:12 11,2 C 8,9 C 82 % 1019,8 hPa 0,0 l/m 8,9 km/h (2 Bft) N 350 0 min 0,0 UV-I 0 W/m 8,2 C 9,6 C 14,5 km/h (3 Bft)
01.06.2023 23:15 11,2 C 9,4 C 82 % 1019,7 hPa 0,0 l/m 6,9 km/h (2 Bft) N 360 0 min 0,0 UV-I 0 W/m 8,2 C 10,9 C 12,9 km/h (3 Bft)
01.06.2023 23:18 11,2 C 8,9 C 82 % 1019,8 hPa 0,0 l/m 5,6 km/h (1 Bft) N-NW 340 0 min 0,0 UV-I 0 W/m 8,2 C 11,2 C 8,0 km/h (2 Bft)
01.06.2023 23:21 11,2 C 9,4 C 83 % 1019,7 hPa 0,0 l/m 5,7 km/h (1 Bft) N-NO 15 0 min 0,0 UV-I 0 W/m 8,4 C 11,2 C 9,7 km/h (2 Bft)
01.06.2023 23:24 11,3 C 9,4 C 84 % 1019,7 hPa 0,0 l/m 9,8 km/h (2 Bft) N-NW 344 0 min 0,0 UV-I 0 W/m 8,7 C 9,1 C 19,3 km/h (3 Bft)
01.06.2023 23:27 11,4 C 10,6 C 83 % 1019,7 hPa 0,0 l/m 14,0 km/h (3 Bft) N 355 0 min 0,0 UV-I 0 W/m 8,6 C 7,2 C 19,3 km/h (3 Bft)
01.06.2023 23:30 11,6 C 10,6 C 83 % 1019,7 hPa 0,0 l/m 10,9 km/h (2 Bft) N-NO 28 0 min 0,0 UV-I 0 W/m 8,8 C 8,9 C 16,1 km/h (3 Bft)
01.06.2023 23:33 11,7 C 11,1 C 83 % 1019,8 hPa 0,0 l/m 12,6 km/h (3 Bft) N 11 0 min 0,0 UV-I 0 W/m 8,9 C 8,2 C 19,3 km/h (3 Bft)
01.06.2023 23:36 11,7 C 11,1 C 83 % 1019,8 hPa 0,0 l/m 10,9 km/h (2 Bft) N 11 0 min 0,0 UV-I 0 W/m 8,9 C 9,0 C 19,3 km/h (3 Bft)
01.06.2023 23:39 11,7 C 11,1 C 83 % 1019,7 hPa 0,0 l/m 14,7 km/h (3 Bft) N 9 0 min 0,0 UV-I 0 W/m 8,9 C 7,3 C 22,5 km/h (4 Bft)
01.06.2023 23:42 11,7 C 11,1 C 83 % 1019,7 hPa 0,0 l/m 9,4 km/h (2 Bft) N 360 0 min 0,0 UV-I 0 W/m 8,9 C 9,8 C 19,3 km/h (3 Bft)
01.06.2023 23:45 11,6 C 11,1 C 83 % 1019,8 hPa 0,0 l/m 13,3 km/h (3 Bft) N-NW 348 0 min 0,0 UV-I 0 W/m 8,8 C 7,8 C 20,9 km/h (4 Bft)
01.06.2023 23:48 11,6 C 11,1 C 83 % 1019,7 hPa 0,0 l/m 14,4 km/h (3 Bft) N-NW 346 0 min 0,0 UV-I 0 W/m 8,8 C 7,3 C 19,3 km/h (3 Bft)
01.06.2023 23:51 11,6 C 11,1 C 83 % 1019,7 hPa 0,0 l/m 19,3 km/h (3 Bft) N 360 0 min 0,0 UV-I 0 W/m 8,8 C 5,6 C 27,4 km/h (4 Bft)
01.06.2023 23:54 11,5 C 11,1 C 83 % 1019,8 hPa 0,0 l/m 14,1 km/h (3 Bft) N 355 0 min 0,0 UV-I 0 W/m 8,7 C 7,3 C 22,5 km/h (4 Bft)
01.06.2023 23:57 11,4 C 11,1 C 83 % 1019,8 hPa 0,0 l/m 18,0 km/h (3 Bft) N-NW 344 0 min 0,0 UV-I 0 W/m 8,6 C 5,7 C 24,1 km/h (4 Bft)
_ Min-Zeit 04:45 04:39 14:18 20:45 - 00:18 - - - - - 14:27 23:51 00:18
Minimum _ 7,2 C 5,0 C 35 % 1019,2 hPa - 0,0 km/h (0 Bft) - - - - - 5,0 C 5,6 C 0,0 km/h (0 Bft)
_ Max-Zeit 14:51 14:12 04:54 00:39 00:00 16:18 - - 07:37 13:54 14:15 12:51 15:12 20:30
Maximum _ 21,7 C 31,7 C 91 % 1022,1 hPa 0,0 l/m 19,9 km/h
N (4 Bft)
- - 4 min 6,7 UV-I 903 W/m 13,2 C 20,5 C 30,6 km/h
N (5 Bft)
Durchschnitt _ 15,0 C 16,8 C 69 % 1020,8 hPa #0,0 l/m 8,2 km/h (2 Bft) N - #12:54 h 3,8 UV-I 486 W/m 8,8 C 13,6 C 13,0 km/h (3 Bft)